PORTS® Data Listing: 8452660 Newport, RI

CO-OPS RAW PORTS DATA

************************      PRELIMINARY DATA      ************************** 

     THIS RAW DATA HAS NOT BEEN SUBJECT TO THE NATIONAL OCEAN SERVICE'S        
     QUALITY CONTROL OR QUALITY ASSURANCE PROCEDURES AND DOES NOT MEET         
     THE CRITERIA AND STANDARDS OF OFFICIAL NATIONAL OCEAN SERVICE             
     DATA.  IT IS RELEASED FOR LIMITED PUBLIC USE AS PRELIMINARY DATA TO       
     BE USED ONLY WITH APPROPRIATE CAUTION.                                    

************************      PRELIMINARY DATA      ************************** 


       CD   -   Calendar date
       T    -   Time
       TZ   -   Timezone
       PW   -   Predicted water level (feet above MLLW)
       OW   -   Observed water level (feet above MLLW)
       WS   -   Wind speed (knots)
       WD   -   Wind direction (degrees true)
       WG   -   Wind gust (knots)
       AT   -   Air temperature (degrees farenheit)
       WT   -   Water temperature (degrees farenheit)
       AP   -   Air pressure (millibars)
       SA   -   Salinty (PSU - Practical Salinity Units)
       SG   -   Specific gravity
       RH   -   Relative humidity
       AG   -   Air gap (feet)
       VI   -   Visibility (nautical miles)

       ** NOTE **
       A variable that has its data fields filled with "9"s, indicates that
       data was not collected for that sample period.
       **********


STATION NAME: Newport (8452660)
****************************************************************************************************
    CD       T    TZ    PW     OW    WS   WD   WG    AT    WT    AP    SA    SG     RH    AG   VI
****************************************************************************************************
2019/12/06 08:42 EST    0.71   1.02    9  246   10  34.0  37.9 1020.2 31.7  1.026 -99.9 -99.99 -9.99
2019/12/06 08:48 EST    0.70   0.99    8  255    9  34.0  37.9 1020.2 31.6  1.026 -99.9 -99.99 -9.99
2019/12/06 08:54 EST    0.69   1.10    8  250   10  34.0  37.9 1020.2 31.7  1.026 -99.9 -99.99 -9.99
2019/12/06 09:00 EST    0.69   0.98    9  242   11  34.3  38.1 1020.2 31.7  1.026 -99.9 -99.99 -9.99
2019/12/06 09:06 EST    0.68   1.09    8  236   10  34.3  38.1 1020.3 31.7  1.026 -99.9 -99.99 -9.99
2019/12/06 09:12 EST    0.68   1.07    8  247   11  34.2  38.1 1020.3 31.7  1.026 -99.9 -99.99 -9.99
2019/12/06 09:18 EST    0.68   0.95    9  246   10  34.3  38.1 1020.4 31.7  1.026 -99.9 -99.99 -9.99
2019/12/06 09:24 EST    0.68   1.17    8  235   10  34.3  38.1 1020.4 31.7  1.026 -99.9 -99.99 -9.99
2019/12/06 09:30 EST    0.69   1.03    8  241   11  34.3  38.1 1020.5 31.8  1.026 -99.9 -99.99 -9.99
2019/12/06 09:36 EST    0.69   0.98    8  240    9  34.5  38.1 1020.5 31.7  1.026 -99.9 -99.99 -9.99
2019/12/06 09:42 EST    0.70   1.04    7  243    9  34.5  38.3 1020.4 31.7  1.026 -99.9 -99.99 -9.99
2019/12/06 09:48 EST    0.71   0.97    7  237    9  34.7  38.3 1020.3 31.7  1.026 -99.9 -99.99 -9.99
2019/12/06 09:54 EST    0.72   1.05    6  231    9  34.9  38.1 1020.3 31.7  1.026 -99.9 -99.99 -9.99
2019/12/06 10:00 EST    0.73   1.12    9  226   11  34.9  38.1 1020.0 31.7  1.026 -99.9 -99.99 -9.99
2019/12/06 10:06 EST    0.75   1.05    8  231   11  35.1  38.1 1019.8 31.7  1.026 -99.9 -99.99 -9.99
2019/12/06 10:12 EST    0.77   1.06    7  234    9  35.2  38.1 1019.7 31.7  1.026 -99.9 -99.99 -9.99
2019/12/06 10:18 EST    0.79   1.12    7  222    9  35.6  38.3 1019.6 31.7  1.026 -99.9 -99.99 -9.99
2019/12/06 10:24 EST    0.81   1.04    7  226   11  35.6  38.1 1019.6 31.7  1.026 -99.9 -99.99 -9.99
2019/12/06 10:30 EST    0.83   1.05    8  229    9  35.8  38.1 1019.5 31.7  1.026 -99.9 -99.99 -9.99
2019/12/06 10:36 EST    0.86   1.15    7  221   10  35.6  38.1 1019.2 31.7  1.026 -99.9 -99.99 -9.99
2019/12/06 10:42 EST    0.88   1.16    7  229    9  35.8  38.1 1019.3 31.7  1.026 -99.9 -99.99 -9.99
2019/12/06 10:48 EST    0.91   1.24    8  240    9  35.8  38.1 1019.3 31.6  1.026 -99.9 -99.99 -9.99
2019/12/06 10:54 EST    0.95   1.17    8  240   10  35.8  38.1 1019.1 31.7  1.026 -99.9 -99.99 -9.99
2019/12/06 11:00 EST    0.98   1.20    8  252   10  35.8  38.1 1019.2 31.7  1.026 -99.9 -99.99 -9.99
2019/12/06 11:06 EST    1.02   1.32    7  262   10  36.0  38.3 1019.1 31.7  1.026 -99.9 -99.99 -9.99
2019/12/06 11:12 EST    1.06   1.25    6  260    8  36.0  38.3 1018.8 31.6  1.026 -99.9 -99.99 -9.99
2019/12/06 11:18 EST    1.10   1.27    8  247   10  36.3  38.3 1018.7 31.6  1.026 -99.9 -99.99 -9.99
2019/12/06 11:24 EST    1.14   1.23    8  247   11  36.5  38.3 1018.6 31.7  1.026 -99.9 -99.99 -9.99
2019/12/06 11:30 EST    1.18   1.36    9  250   11  36.7  38.3 1018.4 31.7  1.026 -99.9 -99.99 -9.99
2019/12/06 11:36 EST    1.23   1.49    9  247   11  36.9  38.5 1018.3 31.7  1.026 -99.9 -99.99 -9.99
2019/12/06 11:42 EST    1.28   1.49   11  240   12  37.4  38.5 1018.1 31.7  1.026 -99.9 -99.99 -9.99
2019/12/06 11:48 EST    1.32   1.59    9  232   13  37.4  38.7 1017.9 31.8  1.026 -99.9 -99.99 -9.99
2019/12/06 11:54 EST    1.37   1.52    9  223   12  37.6  38.7 1017.8 31.8  1.026 -99.9 -99.99 -9.99
2019/12/06 12:00 EST    1.43   1.56   11  226   14  38.1  38.7 1017.5 31.8  1.026 -99.9 -99.99 -9.99
2019/12/06 12:06 EST    1.48   1.73   11  222   12  38.1  38.8 1017.2 31.7  1.026 -99.9 -99.99 -9.99
2019/12/06 12:12 EST    1.53   1.71   12  225   14  38.5  38.8 1017.2 31.8  1.026 -99.9 -99.99 -9.99
2019/12/06 12:18 EST    1.58   1.80   15  222   22  38.8  38.8 1017.2 31.8  1.026 -99.9 -99.99 -9.99
2019/12/06 12:24 EST    1.64   1.90   15  224   20  38.8  38.8 1017.3 31.8  1.026 -99.9 -99.99 -9.99
2019/12/06 12:30 EST    1.69   1.97   15  222   19  38.8  38.8 1016.9 31.8  1.026 -99.9 -99.99 -9.99
2019/12/06 12:36 EST    1.75   2.05   14  213   19  38.8  38.8 1017.0 31.8  1.026 -99.9 -99.99 -9.99
2019/12/06 12:42 EST    1.80   2.08   15  216   20  39.2  38.8 1017.0 31.8  1.026 -99.9 -99.99 -9.99
2019/12/06 12:48 EST    1.86   2.14   12  231   18  39.2  39.0 1016.9 31.8  1.026 -99.9 -99.99 -9.99
2019/12/06 12:54 EST    1.91   2.16   13  228   15  39.2  39.0 1016.8 31.8  1.026 -99.9 -99.99 -9.99
2019/12/06 13:00 EST    1.96   2.16   11  232   15  39.4  38.8 1016.8 31.8  1.026 -99.9 -99.99 -9.99
2019/12/06 13:06 EST    2.02   2.29   11  232   14  39.2  39.0 1016.6 31.8  1.026 -99.9 -99.99 -9.99
2019/12/06 13:12 EST    2.07   2.37   10  218   15  39.4  38.8 1016.4 31.8  1.026 -99.9 -99.99 -9.99
2019/12/06 13:18 EST    2.12   2.48   14  216   16  39.7  38.8 1016.2 31.8  1.026 -99.9 -99.99 -9.99
2019/12/06 13:24 EST    2.17   2.44   10  224   15  39.9  38.8 1015.9 31.7  1.026 -99.9 -99.99 -9.99
2019/12/06 13:30 EST    2.22   2.53   10  227   12  40.3  38.7 1015.9 31.8  1.026 -99.9 -99.99 -9.99
2019/12/06 13:36 EST    2.26   2.60   10  218   13  40.6  38.7 1015.8 31.8  1.026 -99.9 -99.99 -9.99
2019/12/06 13:42 EST    2.31   2.57   14  214   16  41.2  38.7 1015.7 31.7  1.026 -99.9 -99.99 -9.99
2019/12/06 13:48 EST    2.35   2.79   14  214   17  41.2  38.5 1015.5 31.8  1.026 -99.9 -99.99 -9.99
2019/12/06 13:54 EST    2.39   2.81   12  211   16  41.5  38.5 1015.5 31.8  1.026 -99.9 -99.99 -9.99
2019/12/06 14:00 EST    2.43   2.90   12  217   16  41.7  38.5 1015.4 31.7  1.026 -99.9 -99.99 -9.99
2019/12/06 14:06 EST    2.47   2.98   14  223   16  41.9  38.5 1015.4 31.7  1.026 -99.9 -99.99 -9.99
2019/12/06 14:12 EST    2.50   3.00   11  222   16  42.3  38.3 1015.3 31.8  1.026 -99.9 -99.99 -9.99
2019/12/06 14:18 EST    2.53   3.08   11  226   14  42.4  38.3 1015.2 31.7  1.026 -99.9 -99.99 -9.99
2019/12/06 14:24 EST    2.56   3.10   11  215   14  43.0  38.3 1014.9 31.7  1.026 -99.9 -99.99 -9.99
2019/12/06 14:30 EST    2.58   3.08   14  218   16  43.5  38.3 1014.7 31.7  1.026 -99.9 -99.99 -9.99
2019/12/06 14:36 EST    2.61   3.20   14  216   19  44.4  38.3 1014.6 31.7  1.026 -99.9 -99.99 -9.99
2019/12/06 14:42 EST    2.63   3.20   18  218   21  44.8  38.3 1014.5 31.8  1.026 -99.9 -99.99 -9.99
2019/12/06 14:48 EST    2.65   3.27   16  225   21  44.8  38.3 1014.6 31.8  1.026 -99.9 -99.99 -9.99
2019/12/06 14:54 EST    2.66   3.39   18  222   24  45.1  38.3 1014.3 31.8  1.026 -99.9 -99.99 -9.99
2019/12/06 15:00 EST    2.67   3.28   18  224   23  45.3  38.3 1014.3 31.8  1.026 -99.9 -99.99 -9.99
2019/12/06 15:06 EST    2.68   3.31   18  222   22  45.3  38.3 1014.4 31.8  1.026 -99.9 -99.99 -9.99
2019/12/06 15:12 EST    2.68   3.36   16  225   20  45.3  38.5 1014.4 31.7  1.026 -99.9 -99.99 -9.99
2019/12/06 15:18 EST    2.69   3.41   16  224   20  45.5  38.5 1014.3 31.8  1.026 -99.9 -99.99 -9.99
2019/12/06 15:24 EST    2.69   3.38   18  220   22  45.7  38.5 1014.1 31.8  1.026 -99.9 -99.99 -9.99
2019/12/06 15:30 EST    2.68   3.44   17  221   24  45.9  38.5 1013.9 31.8  1.026 -99.9 -99.99 -9.99
2019/12/06 15:36 EST    2.68   3.47   18  220   22  46.0  38.5 1013.9 31.8  1.026 -99.9 -99.99 -9.99
2019/12/06 15:42 EST    2.67   3.42   18  223   22  46.2  38.5 1014.0 31.7  1.026 -99.9 -99.99 -9.99
2019/12/06 15:48 EST    2.66   3.51   17  225   21  46.2  38.5 1014.0 31.7  1.026 -99.9 -99.99 -9.99
2019/12/06 15:54 EST    2.64   3.44   14  217   21  46.4  38.5 1013.6 31.7  1.026 -99.9 -99.99 -9.99
2019/12/06 16:00 EST    2.62   3.42   17  221   19  46.6  38.3 1013.7 31.8  1.026 -99.9 -99.99 -9.99
2019/12/06 16:06 EST    2.60   3.31   17  225   22  46.8  38.5 1013.6 31.7  1.026 -99.9 -99.99 -9.99
2019/12/06 16:12 EST    2.58   3.35   17  224   22  46.9  38.3 1013.4 31.8  1.026 -99.9 -99.99 -9.99
2019/12/06 16:18 EST    2.55   3.35   17  226   21  47.3  38.3 1013.4 31.8  1.026 -99.9 -99.99 -9.99
2019/12/06 16:24 EST    2.52   3.35   17  230   24  47.5  38.3 1013.3 31.8  1.026 -99.9 -99.99 -9.99
2019/12/06 16:30 EST    2.49   3.33   17  226   22  47.7  38.3 1013.2 31.7  1.026 -99.9 -99.99 -9.99
2019/12/06 16:36 EST    2.46   3.26   18  225   21  47.7  38.3 1013.2 31.7  1.026 -99.9 -99.99 -9.99
2019/12/06 16:42 EST    2.42   3.21   20  225   27  48.0  38.3 1013.0 31.7  1.026 -99.9 -99.99 -9.99
2019/12/06 16:48 EST    2.38   3.15   19  224   27  48.0  38.3 1012.9 31.3  1.026 -99.9 -99.99 -9.99
2019/12/06 16:54 EST    2.33   3.16   20  222   27  48.0  38.1 1012.8 31.4  1.026 -99.9 -99.99 -9.99
2019/12/06 17:00 EST    2.29   3.06   20  223   27  48.2  38.1 1012.7 31.7  1.026 -99.9 -99.99 -9.99
2019/12/06 17:06 EST    2.24   3.03   23  222   25  48.2  38.1 1012.6 31.7  1.026 -99.9 -99.99 -9.99
2019/12/06 17:12 EST    2.19   3.00   22  221   27  48.2  38.1 1012.6 31.7  1.026 -99.9 -99.99 -9.99
2019/12/06 17:18 EST    2.13   2.98   22  224   27  48.4  38.1 1012.5 31.7  1.026 -99.9 -99.99 -9.99
2019/12/06 17:24 EST    2.08   2.90   21  223   28  48.4  37.9 1012.3 31.7  1.026 -99.9 -99.99 -9.99
2019/12/06 17:30 EST    2.02   2.80   20  222   28  48.2  37.8 1012.2 31.7  1.026 -99.9 -99.99 -9.99
2019/12/06 17:36 EST    1.96   2.73   22  222   28  48.6  37.6 1012.2 31.7  1.026 -99.9 -99.99 -9.99
2019/12/06 17:42 EST    1.90   2.61   22  223   27  48.6  37.6 1012.1 31.6  1.026 -99.9 -99.99 -9.99
2019/12/06 17:48 EST    1.84   2.56   23  226   28  48.7  37.4 1012.1 31.7  1.026 -99.9 -99.99 -9.99
2019/12/06 17:54 EST    1.77   2.50   18  231   25  48.6  37.4 1012.4 31.7  1.026 -99.9 -99.99 -9.99
2019/12/06 18:00 EST    1.71   2.43   19  236   30  48.7  37.4 1012.6 31.8  1.026 -99.9 -99.99 -9.99
2019/12/06 18:06 EST    1.64   2.37   22  238   28  48.7  37.6 1012.6 31.7  1.026 -99.9 -99.99 -9.99
2019/12/06 18:12 EST    1.58   2.15   20  232   27  48.4  37.6 1012.6 31.7  1.026 -99.9 -99.99 -9.99
2019/12/06 18:18 EST    1.51   2.12   17  231   25  48.2  37.6 1012.6 31.7  1.026 -99.9 -99.99 -9.99
2019/12/06 18:24 EST    1.44   2.02   21  235   25  48.6  37.6 1012.5 31.7  1.026 -99.9 -99.99 -9.99
2019/12/06 18:30 EST    1.38   1.91   21  238   28  48.6  37.6 1012.4 31.7  1.026 -99.9 -99.99 -9.99
2019/12/06 18:36 EST    1.31   1.82   19  234   25  48.6  37.4 1012.5 31.8  1.026 -99.9 -99.99 -9.99
2019/12/06 18:42 EST    1.25   1.74   20  238   23  48.7  37.4 1012.5 31.8  1.026 -99.9 -99.99 -9.99
2019/12/06 18:48 EST    1.18   1.75   18  238   23  48.7  37.6 1012.5 31.7  1.026 -99.9 -99.99 -9.99
2019/12/06 18:54 EST    1.12   1.59   17  242   21  48.6  37.6 1012.6 31.7  1.026 -99.9 -99.99 -9.99
2019/12/06 19:00 EST    1.06   1.56   18  247   26  48.7  37.6 1012.6 31.7  1.026 -99.9 -99.99 -9.99
2019/12/06 19:06 EST    1.00   1.49   15  246   21  48.6  37.6 1012.9 31.7  1.026 -99.9 -99.99 -9.99
2019/12/06 19:12 EST    0.95   1.35   16  248   20  48.7  37.6 1012.9 31.7  1.026 -99.9 -99.99 -9.99
2019/12/06 19:18 EST    0.89   1.28   16  251   21  48.7  37.6 1012.9 31.7  1.026 -99.9 -99.99 -9.99
2019/12/06 19:24 EST    0.84   1.15   16  250   21  48.6  37.6 1013.0 31.7  1.026 -99.9 -99.99 -9.99
2019/12/06 19:30 EST    0.79   1.09   14  254   21  48.4  37.6 1013.1 31.7  1.026 -99.9 -99.99 -9.99
2019/12/06 19:36 EST    0.75   1.06   14  253   18  48.4  37.6 1013.1 31.7  1.026 -99.9 -99.99 -9.99
2019/12/06 19:42 EST    0.70   0.96   17  267   22  48.2  37.6 1013.1 31.7  1.026 -99.9 -99.99 -9.99
2019/12/06 19:48 EST    0.66   0.91   18  262   24  48.2  37.6 1013.1 31.7  1.026 -99.9 -99.99 -9.99
2019/12/06 19:54 EST    0.63   0.81   19  265   24  48.6  37.6 1013.1 31.7  1.026 -99.9 -99.99 -9.99
2019/12/06 20:00 EST    0.59   0.79   16  278   22  48.0  37.6 1013.3 31.7  1.026 -99.9 -99.99 -9.99
2019/12/06 20:06 EST    0.56   0.72   16  270   22  47.7  37.8 1013.2 31.6  1.026 -99.9 -99.99 -9.99
2019/12/06 20:12 EST    0.53   0.67   17  275   23  47.8  37.6 1013.3 31.7  1.026 -99.9 -99.99 -9.99
2019/12/06 20:18 EST    0.51   0.65   17  275   25  47.7  37.6 1013.5 31.7  1.026 -99.9 -99.99 -9.99
2019/12/06 20:24 EST    0.49   0.60   13  278   19  47.1  37.8 1013.6 31.6  1.026 -99.9 -99.99 -9.99
2019/12/06 20:30 EST    0.47   0.52   18  285   23  47.3  37.8 1013.7 31.6  1.026 -99.9 -99.99 -9.99
2019/12/06 20:36 EST    0.45   0.48   16  285   23  47.1  37.8 1013.8 31.7  1.026 -99.9 -99.99 -9.99
2019/12/06 20:42 EST    0.44   0.55   15  286   21  46.8  37.8 1013.9 31.5  1.026 -99.9 -99.99 -9.99
2019/12/06 20:48 EST    0.43   0.43   16  290   21  46.8  37.8 1013.9 31.6  1.026 -99.9 -99.99 -9.99
2019/12/06 20:54 EST    0.42   0.43   14  288   21  46.6  37.8 1014.0 31.7  1.026 -99.9 -99.99 -9.99
2019/12/06 21:00 EST    0.41   0.40   12  284   16  46.2  37.8 1014.2 31.9  1.026 -99.9 -99.99 -9.99
2019/12/06 21:06 EST    0.41   0.42   11  294   16  46.2  37.8 1014.3 32.0  1.026 -99.9 -99.99 -9.99
2019/12/06 21:12 EST    0.41   0.38    8  298   18  46.0  37.8 1014.4 32.0  1.026 -99.9 -99.99 -9.99
2019/12/06 21:18 EST    0.41   0.31   10  300   13  45.9  37.8 1014.6 32.0  1.026 -99.9 -99.99 -9.99
2019/12/06 21:24 EST    0.41   0.44   11  308   15  45.7  37.8 1014.7 32.0  1.026 -99.9 -99.99 -9.99
2019/12/06 21:30 EST    0.42   0.44   10  306   16  45.3  37.8 1014.8 32.0  1.026 -99.9 -99.99 -9.99
2019/12/06 21:36 EST    0.43   0.38    9  305   19  45.1  37.9 1014.9 31.9  1.026 -99.9 -99.99 -9.99
2019/12/06 21:42 EST    0.44   0.45   11  296   21  44.8  37.9 1015.1 31.9  1.026 -99.9 -99.99 -9.99
2019/12/06 21:48 EST    0.45   0.45   15  303   23  44.6  37.9 1015.3 31.9  1.026 -99.9 -99.99 -9.99
2019/12/06 21:54 EST    0.47   0.41   16  311   23  44.2  37.9 1015.4 31.9  1.026 -99.9 -99.99 -9.99
2019/12/06 22:00 EST    0.48   0.41   18  310   23  43.9  37.9 1015.4 31.9  1.026 -99.9 -99.99 -9.99
2019/12/06 22:06 EST    0.50   0.36   12  305   23  43.7  37.9 1015.5 31.9  1.026 -99.9 -99.99 -9.99
2019/12/06 22:12 EST    0.53   0.41   14  315   17  43.3  37.9 1015.6 31.9  1.026 -99.9 -99.99 -9.99
2019/12/06 22:18 EST    0.55   0.40   15  314   21  43.2  37.9 1015.8 32.0  1.026 -99.9 -99.99 -9.99
2019/12/06 22:24 EST    0.58   0.35   18  310   24  42.6  37.9 1015.9 32.0  1.026 -99.9 -99.99 -9.99
2019/12/06 22:30 EST    0.61   0.45   14  308   22  42.4  37.9 1016.0 32.0  1.026 -99.9 -99.99 -9.99
2019/12/06 22:36 EST    0.64   0.49   14  308   19  41.9  37.9 1016.1 32.0  1.026 -99.9 -99.99 -9.99
2019/12/06 22:42 EST    0.67   0.44   14  308   19  41.5  37.9 1016.3 32.0  1.026 -99.9 -99.99 -9.99
2019/12/06 22:48 EST    0.71   0.60   12  318   17  41.4  38.1 1016.4 32.0  1.026 -99.9 -99.99 -9.99
2019/12/06 22:54 EST    0.74   0.58   15  315   20  40.6  38.1 1016.5 32.0  1.026 -99.9 -99.99 -9.99
2019/12/06 23:00 EST    0.78   0.58   15  316   21  40.5  38.1 1016.7 32.0  1.026 -99.9 -99.99 -9.99
2019/12/06 23:06 EST    0.83   0.63   13  319   20  40.1  38.1 1016.9 32.0  1.026 -99.9 -99.99 -9.99
2019/12/06 23:12 EST    0.87   0.69   14  334   22  39.7  38.1 1017.0 32.0  1.026 -99.9 -99.99 -9.99
2019/12/06 23:18 EST    0.92   0.67   12  322   22  39.4  38.1 1017.1 32.0  1.026 -99.9 -99.99 -9.99
2019/12/06 23:24 EST    0.96   0.68   11  326   19  39.2  38.1 1017.2 32.0  1.026 -99.9 -99.99 -9.99
2019/12/06 23:30 EST    1.02   0.71   12  330   17  38.8  38.1 1017.3 32.0  1.026 -99.9 -99.99 -9.99
2019/12/06 23:36 EST    1.07   0.76   11  328   20  38.7  38.1 1017.4 31.9  1.026 -99.9 -99.99 -9.99
2019/12/06 23:42 EST    1.12   0.80   15  322   22  38.3  37.9 1017.5 32.0  1.026 -99.9 -99.99 -9.99
2019/12/06 23:48 EST    1.18   0.74   13  323   22  38.1  37.9 1017.5 32.0  1.026 -99.9 -99.99 -9.99
2019/12/06 23:54 EST    1.23   0.72   11  328   20  37.9  37.9 1017.6 32.0  1.026 -99.9 -99.99 -9.99
2019/12/07 00:00 EST    1.29   0.83   16  334   20  37.6  37.9 1017.6 32.0  1.026 -99.9 -99.99 -9.99
2019/12/07 00:06 EST    1.35   0.84   14  331   22  37.4  37.9 1017.7 31.9  1.026 -99.9 -99.99 -9.99
2019/12/07 00:12 EST    1.41   0.90   10  331   20  37.2  37.8 1017.8 32.0  1.026 -99.9 -99.99 -9.99
2019/12/07 00:18 EST    1.47   0.98   19  332   29  36.9  37.8 1017.9 31.9  1.026 -99.9 -99.99 -9.99
2019/12/07 00:24 EST    1.54   1.03   16  338   25  36.7  37.8 1017.9 31.9  1.026 -99.9 -99.99 -9.99
2019/12/07 00:30 EST    1.60   1.02   17  337   27  36.3  37.8 1018.0 31.9  1.026 -99.9 -99.99 -9.99
2019/12/07 00:36 EST    1.66   1.08   17  336   24  36.3  37.8 1018.1 31.8  1.026 -99.9 -99.99 -9.99
2019/12/07 00:42 EST    1.73   1.12   15  336   24  36.1  37.8 1018.2 31.8  1.026 -99.9 -99.99 -9.99
2019/12/07 00:48 EST    1.79   1.18   15  336   21  36.1  37.6 1018.3 31.9  1.026 -99.9 -99.99 -9.99
2019/12/07 00:54 EST    1.86   1.26   15  339   22  36.1  37.6 1018.5 31.9  1.026 -99.9 -99.99 -9.99
2019/12/07 01:00 EST    1.92   1.37   14  342   23  36.0  37.6 1018.5 31.9  1.026 -99.9 -99.99 -9.99
2019/12/07 01:06 EST    1.98   1.34   14  338   18  35.8  37.6 1018.6 31.9  1.026 -99.9 -99.99 -9.99
2019/12/07 01:12 EST    2.05   1.40   14  340   22  35.6  37.6 1018.7 31.9  1.026 -99.9 -99.99 -9.99
2019/12/07 01:18 EST    2.11   1.46   15  342   22  35.6  37.6 1018.8 31.9  1.026 -99.9 -99.99 -9.99
2019/12/07 01:24 EST    2.17   1.51   13  334   22  35.4  37.6 1018.9 31.9  1.026 -99.9 -99.99 -9.99
2019/12/07 01:30 EST    2.23   1.61   11  343   22  35.6  37.6 1019.0 31.9  1.026 -99.9 -99.99 -9.99
2019/12/07 01:36 EST    2.29   1.61   17  341   24  35.4  37.6 1019.2 31.9  1.026 -99.9 -99.99 -9.99
2019/12/07 01:42 EST    2.35   1.69   16  339   23  35.2  37.6 1019.4 31.9  1.026 -99.9 -99.99 -9.99
2019/12/07 01:48 EST    2.41   1.81   12  343   21  35.2  37.6 1019.4 31.9  1.026 -99.9 -99.99 -9.99
2019/12/07 01:54 EST    2.46   1.82   10  339   19  35.2  37.6 1019.6 31.9  1.026 -99.9 -99.99 -9.99
2019/12/07 02:00 EST    2.51   1.92   12  344   19  34.9  37.6 1019.7 31.9  1.026 -99.9 -99.99 -9.99
2019/12/07 02:06 EST    2.56   1.99   12  335   17  35.1  37.6 1019.8 31.9  1.026 -99.9 -99.99 -9.99
2019/12/07 02:12 EST    2.61   2.03   14  339   19  34.7  37.6 1020.0 31.9  1.026 -99.9 -99.99 -9.99
2019/12/07 02:18 EST    2.66   2.14   13  340   19  34.7  37.6 1020.0 31.9  1.026 -99.9 -99.99 -9.99
2019/12/07 02:24 EST    2.71   2.22   13  336   18  34.7  37.6 1020.2 31.9  1.026 -99.9 -99.99 -9.99
2019/12/07 02:30 EST    2.75   2.26   12  343   19  34.5  37.6 1020.2 31.8  1.026 -99.9 -99.99 -9.99
2019/12/07 02:36 EST    2.79   2.29   12  338   17  34.3  37.6 1020.3 31.9  1.026 -99.9 -99.99 -9.99
2019/12/07 02:42 EST    2.83   2.41   12  334   18  34.3  37.6 1020.3 31.9  1.026 -99.9 -99.99 -9.99
2019/12/07 02:48 EST    2.86   2.46   11  332   16  34.3  37.6 1020.4 31.9  1.026 -99.9 -99.99 -9.99
2019/12/07 02:54 EST    2.89   2.54   12  332   17  34.0  37.6 1020.5 31.9  1.026 -99.9 -99.99 -9.99
2019/12/07 03:00 EST    2.92   2.57   10  334   17  34.0  37.6 1020.5 31.9  1.026 -99.9 -99.99 -9.99
2019/12/07 03:06 EST    2.95   2.57   11  333   17  33.8  37.6 1020.6 31.9  1.026 -99.9 -99.99 -9.99
2019/12/07 03:12 EST    2.97   2.66   11  336   15  33.8  37.6 1020.8 31.9  1.026 -99.9 -99.99 -9.99
2019/12/07 03:18 EST    2.99   2.67   13  339   18  33.6  37.6 1020.9 31.9  1.026 -99.9 -99.99 -9.99
2019/12/07 03:24 EST    3.01   2.70   11  336   15  33.6  37.6 1021.0 31.9  1.026 -99.9 -99.99 -9.99
2019/12/07 03:30 EST    3.03   2.76   10  332   18  33.6  37.6 1021.1 31.9  1.026 -99.9 -99.99 -9.99
2019/12/07 03:36 EST    3.04   2.80   11  339   15  33.4  37.6 1021.2 31.9  1.026 -99.9 -99.99 -9.99
2019/12/07 03:42 EST    3.05   2.88   12  337   17  33.4  37.6 1021.3 31.9  1.026 -99.9 -99.99 -9.99
2019/12/07 03:48 EST    3.05   2.88   11  341   16  33.3  37.6 1021.4 31.9  1.026 -99.9 -99.99 -9.99
2019/12/07 03:54 EST    3.05   2.84    7  326   15  33.3  37.4 1021.4 32.0  1.026 -99.9 -99.99 -9.99
2019/12/07 04:00 EST    3.05   2.90    7  335   13  33.3  37.4 1021.4 32.0  1.026 -99.9 -99.99 -9.99
2019/12/07 04:06 EST    3.05   2.86    7  334   11  33.1  37.4 1021.6 31.9  1.026 -99.9 -99.99 -9.99
2019/12/07 04:12 EST    3.04   2.86   10  334   12  32.9  37.4 1021.6 31.9  1.026 -99.9 -99.99 -9.99
2019/12/07 04:18 EST    3.03   2.88   13  335   18  32.5  37.2 1021.7 31.9  1.026 -99.9 -99.99 -9.99
2019/12/07 04:24 EST    3.02   2.91   11  338   17  32.5  37.4 1021.9 31.8  1.026 -99.9 -99.99 -9.99
2019/12/07 04:30 EST    3.00   2.82   10  344   16  32.4  37.2 1022.0 31.9  1.026 -99.9 -99.99 -9.99
2019/12/07 04:36 EST    2.98   2.85   11  331   15  32.2  37.2 1022.2 31.9  1.026 -99.9 -99.99 -9.99
2019/12/07 04:42 EST    2.96   2.87   10  336   14  32.2  37.2 1022.3 31.9  1.026 -99.9 -99.99 -9.99
2019/12/07 04:48 EST    2.94   2.78   12  331   16  32.0  37.0 1022.5 31.9  1.026 -99.9 -99.99 -9.99
2019/12/07 04:54 EST    2.91   2.83    9  337   14  32.0  37.0 1022.6 31.9  1.026 -99.9 -99.99 -9.99
2019/12/07 05:00 EST    2.88   2.79   10  337   15  31.8  37.0 1022.7 31.9  1.026 -99.9 -99.99 -9.99
2019/12/07 05:06 EST    2.84   2.70    7  324   13  31.6  36.9 1022.7 31.9  1.026 -99.9 -99.99 -9.99
2019/12/07 05:12 EST    2.80   2.69    9  317   14  31.5  36.9 1022.8 31.9  1.026 -99.9 -99.99 -9.99
2019/12/07 05:18 EST    2.76   2.61   10  330   16  31.3  36.9 1022.9 31.9  1.026 -99.9 -99.99 -9.99
2019/12/07 05:24 EST    2.72   2.53   10  343   15  31.3  36.9 1022.9 31.9  1.026 -99.9 -99.99 -9.99
2019/12/07 05:30 EST    2.67   2.51   11  335   14  31.3  36.9 1023.1 31.9  1.026 -99.9 -99.99 -9.99
2019/12/07 05:36 EST    2.62   2.45    8  336   16  31.1  36.7 1023.1 31.9  1.026 -99.9 -99.99 -9.99
2019/12/07 05:42 EST    2.57   2.36   10  340   13  31.1  36.7 1023.3 31.9  1.026 -99.9 -99.99 -9.99
2019/12/07 05:48 EST    2.51   2.32    8  320   14  31.1  36.7 1023.4 31.9  1.026 -99.9 -99.99 -9.99
2019/12/07 05:54 EST    2.45   2.27    7  326   14  31.1  36.7 1023.5 31.9  1.026 -99.9 -99.99 -9.99
2019/12/07 06:00 EST    2.39   2.20    7  329   12  31.1  36.7 1023.6 31.9  1.026 -99.9 -99.99 -9.99
2019/12/07 06:06 EST    2.33   2.13   10  332   12  30.9  36.7 1023.7 31.8  1.026 -99.9 -99.99 -9.99
2019/12/07 06:12 EST    2.27   2.04    8  325   13  30.7  36.5 1023.9 31.9  1.026 -99.9 -99.99 -9.99
2019/12/07 06:18 EST    2.20   1.98   10  334   14  30.6  36.5 1024.0 31.9  1.026 -99.9 -99.99 -9.99
2019/12/07 06:24 EST    2.13   1.96    7  329   12  30.6  36.5 1024.2 31.9  1.026 -99.9 -99.99 -9.99
2019/12/07 06:30 EST    2.06   1.82    9  326   12  30.6  36.5 1024.2 31.9  1.026 -99.9 -99.99 -9.99
2019/12/07 06:36 EST    1.99   1.73    7  342   12  30.6  36.5 1024.2 31.9  1.026 -99.9 -99.99 -9.99
2019/12/07 06:42 EST    1.92   1.70    7  340   11  30.6  36.5 1024.4 31.9  1.026 -99.9 -99.99 -9.99
2019/12/07 06:48 EST    1.85   1.54    8  324   12  30.4  36.5 1024.5 31.9  1.026 -99.9 -99.99 -9.99
2019/12/07 06:54 EST    1.78   1.52    8  320   12  30.2  36.5 1024.6 31.9  1.026 -99.9 -99.99 -9.99
2019/12/07 07:00 EST    1.70   1.41    7  321   10  30.2  36.5 1024.7 31.9  1.026 -99.9 -99.99 -9.99
2019/12/07 07:06 EST    1.63   1.31    7  329   11  30.2  36.5 1024.7 31.9  1.026 -99.9 -99.99 -9.99
2019/12/07 07:12 EST    1.56   1.23    7  331   12  30.0  36.5 1024.8 31.9  1.026 -99.9 -99.99 -9.99
2019/12/07 07:18 EST    1.49   1.10    7  337    9  30.0  36.5 1025.0 31.9  1.026 -99.9 -99.99 -9.99
2019/12/07 07:24 EST    1.42   1.11    6  324   10  30.0  36.7 1025.1 31.9  1.026 -99.9 -99.99 -9.99
2019/12/07 07:30 EST    1.36   1.01   11  317   14  29.7  36.7 1025.3 31.9  1.026 -99.9 -99.99 -9.99
2019/12/07 07:36 EST    1.29   0.93    8  323   16  29.8  36.9 1025.4 32.1  1.026 -99.9 -99.99 -9.99
2019/12/07 07:42 EST    1.23   0.88    9  321   14  29.7  36.9 1025.4 32.1  1.026 -99.9 -99.99 -9.99
2019/12/07 07:48 EST    1.17   0.86    9  323   14  29.7  37.4 1025.5 32.4  1.027 -99.9 -99.99 -9.99
2019/12/07 07:54 EST    1.11   0.78    7  324   12  29.7  37.4 1025.5 32.2  1.027 -99.9 -99.99 -9.99
2019/12/07 08:00 EST    1.05   0.71    9  338   14  29.7  37.8 1025.5 32.3  1.027 -99.9 -99.99 -9.99
2019/12/07 08:06 EST    1.00   0.69   10  334   14  29.7  37.6 1025.7 32.3  1.027 -99.9 -99.99 -9.99
2019/12/07 08:12 EST    0.95   0.58   11  336   15  29.5  36.9 1025.9 31.9  1.026 -99.9 -99.99 -9.99
2019/12/07 08:18 EST    0.90   0.64    9  329   12  29.5  37.2 1025.9 32.0  1.026 -99.9 -99.99 -9.99
2019/12/07 08:24 EST    0.86   0.59   10  335   16  29.3  37.0 1026.0 32.0  1.026 -99.9 -99.99 -9.99
2019/12/07 08:30 EST    0.81   0.58    8  337   13  29.5  37.6 1026.0 32.2  1.027 -99.9 -99.99 -9.99
2019/12/07 08:36 EST    0.77   0.56    8  330   14  29.5  37.8 1026.1 32.1  1.026 -99.9 -99.99 -9.99
2019/12/07 08:42 EST    0.74   0.49    8  339   13  29.5  37.8 1026.2 32.2  1.027 -99.9 -99.99 -9.99
2019/12/07 08:48 EST    0.70   0.48    8  337   14  29.5  37.9 1026.3 32.2  1.027 -99.9 -99.99 -9.99
2019/12/07 08:54 EST    0.67   0.48    9  334   12  29.5  37.9 1026.3 32.2  1.027 -99.9 -99.99 -9.99
2019/12/07 09:00 EST    0.64   0.47    8  335   12  30.0  37.9 1026.3 32.2  1.027 -99.9 -99.99 -9.99
2019/12/07 09:06 EST    0.62   0.46    8  330   12  30.2  37.8 1026.4 32.2  1.027 -99.9 -99.99 -9.99
2019/12/07 09:12 EST    0.59   0.47    8  345   12  30.2  38.1 1026.4 32.3  1.027 -99.9 -99.99 -9.99
2019/12/07 09:18 EST    0.57   0.50    6  316    9  30.6  38.1 1026.4 32.2  1.027 -99.9 -99.99 -9.99
2019/12/07 09:24 EST    0.56   0.44    7  325   11  30.7  38.3 1026.5 32.3  1.027 -99.9 -99.99 -9.99
2019/12/07 09:30 EST    0.54   0.49    8  334   11  30.4  38.3 1026.5 32.2  1.027 -99.9 -99.99 -9.99
2019/12/07 09:36 EST    0.53   0.44    8  340   12  30.7  38.3 1026.6 32.2  1.027 -99.9 -99.99 -9.99
2019/12/07 09:42 EST    0.52   0.52    6  322   12  30.7  38.1 1026.7 32.1  1.026 -99.9 -99.99 -9.99
2019/12/07 09:48 EST    0.51   0.49    8  318   11  30.7  38.1 1026.7 32.3  1.027 -99.9 -99.99 -9.99
2019/12/07 09:54 EST    0.50   0.52    9  308   12  30.7  38.8 1026.7 32.4  1.027 -99.9 -99.99 -9.99
2019/12/07 10:00 EST    0.50   0.52   10  346   13  30.9  39.6 1026.8 32.9  1.027 -99.9 -99.99 -9.99
2019/12/07 10:06 EST    0.50   0.49    7  344   13  31.1  39.6 1026.7 32.6  1.027 -99.9 -99.99 -9.99
2019/12/07 10:12 EST    0.50   0.55    5  328   11  31.5  39.9 1026.7 32.6  1.027 -99.9 -99.99 -9.99
2019/12/07 10:18 EST    0.51   0.54    8  312    9  31.3  39.7 1026.6 32.8  1.027 -99.9 -99.99 -9.99
2019/12/07 10:24 EST    0.51   0.55    5  323   10  31.6  39.9 1026.6 32.8  1.027 -99.9 -99.99 -9.99
2019/12/07 10:30 EST    0.52   0.58    7  317   10  31.3  40.1 1026.7 32.8  1.027 -99.9 -99.99 -9.99
2019/12/07 10:36 EST    0.53   0.55    6  339   10  31.6  40.3 1026.7 32.7  1.027 -99.9 -99.99 -9.99
2019/12/07 10:42 EST    0.55   0.61    6  310    9  31.6  40.1 1026.6 32.6  1.027 -99.9 -99.99 -9.99
2019/12/07 10:48 EST    0.56   0.62    8  312   11  32.2  40.1 1026.6 32.7  1.027 -99.9 -99.99 -9.99
2019/12/07 10:54 EST    0.58   0.65    6  326   11  32.0  39.9 1026.5 32.7  1.027 -99.9 -99.99 -9.99
2019/12/07 11:00 EST    0.60   0.67    5  329   11  32.4  40.1 1026.5 32.6  1.027 -99.9 -99.99 -9.99
2019/12/07 11:06 EST    0.63   0.74    4  341    8  33.3  39.9 1026.4 32.5  1.027 -99.9 -99.99 -9.99
2019/12/07 11:12 EST    0.65   0.70    6  302    9  33.1  39.7 1026.3 32.6  1.027 -99.9 -99.99 -9.99
2019/12/07 11:18 EST    0.68   0.77    8  316   10  33.6  39.9 1026.2 32.7  1.027 -99.9 -99.99 -9.99
2019/12/07 11:24 EST    0.71   0.76    7  327   10  33.3  40.1 1026.2 32.8  1.027 -99.9 -99.99 -9.99
2019/12/07 11:30 EST    0.75   0.80    8  334   13  33.4  40.1 1026.1 32.7  1.027 -99.9 -99.99 -9.99
2019/12/07 11:36 EST    0.78   0.91    9  336   13  33.8  39.7 1026.0 32.6  1.027 -99.9 -99.99 -9.99
2019/12/07 11:42 EST    0.82   0.90    7  325   13  34.2  40.1 1025.9 32.6  1.027 -99.9 -99.99 -9.99
2019/12/07 11:48 EST    0.86   0.94    7  321   13  34.2  39.9 1025.9 32.7  1.027 -99.9 -99.99 -9.99
2019/12/07 11:54 EST    0.91   0.99    7  330   13  34.3  39.6 1026.0 32.2  1.026 -99.9 -99.99 -9.99
2019/12/07 12:00 EST    0.95   1.01    8  332   11  34.3  39.9 1026.0 32.7  1.027 -99.9 -99.99 -9.99
2019/12/07 12:06 EST    1.00   1.07    7  334   11  34.2  39.6 1025.9 32.5  1.027 -99.9 -99.99 -9.99
2019/12/07 12:12 EST    1.04   1.11    9  328   11  34.9  39.4 1025.9 32.3  1.027 -99.9 -99.99 -9.99
2019/12/07 12:18 EST    1.09   1.12    7  336   12  34.5  39.2 1025.9 32.4  1.027 -99.9 -99.99 -9.99
2019/12/07 12:24 EST    1.15   1.19    9  334   13  34.5  39.2 1025.9 32.4  1.027 -99.9 -99.99 -9.99
2019/12/07 12:30 EST    1.20   1.25   11  311   13  34.7  39.4 1025.9 32.4  1.027 -99.9 -99.99 -9.99
2019/12/07 12:36 EST    1.25   1.33    9  325   14  35.1  39.2 1025.8 32.4  1.027 -99.9 -99.99 -9.99
2019/12/07 12:42 EST    1.31   1.39    9  312   11  34.7  39.2 1025.8 32.4  1.027 -99.9 -99.99 -9.99
2019/12/07 12:48 EST    1.36   1.36    9  341   13  35.1  39.4 1025.8 32.4  1.027 -99.9 -99.99 -9.99
2019/12/07 12:54 EST    1.42   1.47    8  338   14  35.2  39.4 1025.7 32.4  1.027 -99.9 -99.99 -9.99
2019/12/07 13:00 EST    1.48   1.50    8  322   15  35.4  39.4 1025.7 32.4  1.027 -99.9 -99.99 -9.99
2019/12/07 13:06 EST    1.54   1.52   10  314   12  35.1  39.6 1025.6 32.4  1.027 -99.9 -99.99 -9.99
2019/12/07 13:12 EST    1.60   1.60   10  309   13  35.2  39.6 1025.6 32.3  1.027 -99.9 -99.99 -9.99
2019/12/07 13:18 EST    1.65   1.68    8  338   14  35.4  39.4 1025.7 32.4  1.027 -99.9 -99.99 -9.99
2019/12/07 13:24 EST    1.71   1.71    9  313   11  35.2  39.6 1025.7 32.4  1.027 -99.9 -99.99 -9.99
2019/12/07 13:30 EST    1.77   1.80   12  356   15  35.4  39.6 1025.8 32.4  1.027 -99.9 -99.99 -9.99
2019/12/07 13:36 EST    1.83   1.86   11  358   16  35.2  39.6 1025.8 32.3  1.027 -99.9 -99.99 -9.99
2019/12/07 13:42 EST    1.89   1.86    6  325   13  36.0  39.4 1025.9 32.4  1.027 -99.9 -99.99 -9.99
2019/12/07 13:48 EST    1.94   1.97   10  335   17  35.8  39.4 1025.9 32.4  1.027 -99.9 -99.99 -9.99
2019/12/07 13:54 EST    2.00   2.00   11  339   14  35.2  39.4 1026.0 32.4  1.027 -99.9 -99.99 -9.99
2019/12/07 14:00 EST    2.06   2.07   10  336   14  35.2  39.4 1026.1 32.4  1.027 -99.9 -99.99 -9.99
2019/12/07 14:06 EST    2.11   2.15   11  319   14  35.4  39.6 1026.2 32.3  1.027 -99.9 -99.99 -9.99
2019/12/07 14:12 EST    2.16   2.21    9  311   15  35.4  39.6 1026.3 32.3  1.027 -99.9 -99.99 -9.99
2019/12/07 14:18 EST    2.21   2.29    9  309   13  35.1  39.6 1026.4 32.4  1.027 -99.9 -99.99 -9.99
2019/12/07 14:24 EST    2.26   2.42    8  324   10  35.4  39.7 1026.4 32.3  1.027 -99.9 -99.99 -9.99
2019/12/07 14:30 EST    2.31   2.42    9  323   16  35.6  39.6 1026.5 32.3  1.027 -99.9 -99.99 -9.99
2019/12/07 14:36 EST    2.36   2.48    9  307   15  35.2  39.4 1026.5 32.4  1.027 -99.9 -99.99 -9.99
2019/12/07 14:42 EST    2.40   2.61    9  309   14  35.1  39.4 1026.6 32.4  1.027 -99.9 -99.99 -9.99
2019/12/07 14:48 EST    2.44   2.64    8  327   14  35.1  39.4 1026.7 32.4  1.027 -99.9 -99.99 -9.99
2019/12/07 14:54 EST    2.48   2.64    9  328   12  35.1  39.4 1026.8 32.4  1.027 -99.9 -99.99 -9.99
2019/12/07 15:00 EST    2.52   2.73    9  325   13  35.1  39.4 1026.9 32.4  1.027 -99.9 -99.99 -9.99
2019/12/07 15:06 EST    2.55   2.75    7  334   14  35.1  39.4 1026.9 32.4  1.027 -99.9 -99.99 -9.99
2019/12/07 15:12 EST    2.58   2.80   11  308   16  34.7  39.4 1027.0 32.4  1.027 -99.9 -99.99 -9.99
2019/12/07 15:18 EST    2.61   2.87   11  313   16  34.9  39.4 1027.0 32.5  1.027 -99.9 -99.99 -9.99
2019/12/07 15:24 EST    2.64   2.89   10  308   16  34.7  39.4 1027.1 32.5  1.027 -99.9 -99.99 -9.99
2019/12/07 15:30 EST    2.66   2.93   10  309   15  34.3  39.4 1027.2 32.5  1.027 -99.9 -99.99 -9.99
2019/12/07 15:36 EST    2.68   2.98   12  316   15  34.3  39.4 1027.3 32.5  1.027 -99.9 -99.99 -9.99
2019/12/07 15:42 EST    2.70   3.05   11  305   16  34.3  39.4 1027.3 32.5  1.027 -99.9 -99.99 -9.99
2019/12/07 15:48 EST    2.72   3.06    9  305   15  34.5  39.4 1027.4 32.5  1.027 -99.9 -99.99 -9.99
2019/12/07 15:54 EST    2.73   3.04   11  315   15  34.3  39.2 1027.5 32.5  1.027 -99.9 -99.99 -9.99
2019/12/07 16:00 EST    2.74   3.07   11  317   14  34.3  39.4 1027.6 32.5  1.027 -99.9 -99.99 -9.99
2019/12/07 16:06 EST    2.74   3.11    9  300   15  34.2  39.4 1027.7 32.5  1.027 -99.9 -99.99 -9.99
2019/12/07 16:12 EST    2.74   3.13   11  306   13  34.2  39.4 1027.8 32.6  1.027 -99.9 -99.99 -9.99
2019/12/07 16:18 EST    2.74   3.12   11  308   16  33.8  39.4 1027.8 32.6  1.027 -99.9 -99.99 -9.99
2019/12/07 16:24 EST    2.74   3.11   10  306   14  33.8  39.0 1027.9 32.3  1.027 -99.9 -99.99 -9.99
2019/12/07 16:30 EST    2.73   3.08    9  306   13  33.8  38.8 1028.0 32.3  1.027 -99.9 -99.99 -9.99
2019/12/07 16:36 EST    2.72   3.11   10  307   14  33.6  38.7 1028.1 32.3  1.027 -99.9 -99.99 -9.99
2019/12/07 16:42 EST    2.70   3.08   10  310   15  33.6  38.7 1028.3 32.2  1.027 -99.9 -99.99 -9.99
2019/12/07 16:48 EST    2.68   3.06   12  309   16  33.4  38.7 1028.3 32.3  1.027 -99.9 -99.99 -9.99
2019/12/07 16:54 EST    2.66   3.05   10  314   16  33.3  38.8 1028.4 32.3  1.027 -99.9 -99.99 -9.99
2019/12/07 17:00 EST    2.64   3.02   10  322   17  33.3  38.7 1028.5 32.2  1.027 -99.9 -99.99 -9.99
2019/12/07 17:06 EST    2.61   2.99   12  316   17  33.3  38.7 1028.6 32.3  1.027 -99.9 -99.99 -9.99
2019/12/07 17:12 EST    2.58   2.95   13  310   17  33.1  38.7 1028.6 32.3  1.027 -99.9 -99.99 -9.99
2019/12/07 17:18 EST    2.54   2.93   13  311   17  32.9  38.7 1028.6 32.3  1.027 -99.9 -99.99 -9.99
2019/12/07 17:24 EST    2.50   2.91   12  311   16  32.7  38.7 1028.7 32.3  1.027 -99.9 -99.99 -9.99
2019/12/07 17:30 EST    2.46   2.84   12  314   16  32.5  38.7 1028.8 32.3  1.027 -99.9 -99.99 -9.99
2019/12/07 17:36 EST    2.42   2.77   11  314   16  32.7  38.7 1029.0 32.2  1.027 -99.9 -99.99 -9.99
2019/12/07 17:42 EST    2.37   2.73    9  320   13  32.5  38.7 1029.1 32.3  1.027 -99.9 -99.99 -9.99
2019/12/07 17:48 EST    2.32   2.68   10  319   14  32.5  38.5 1029.2 32.3  1.027 -99.9 -99.99 -9.99
2019/12/07 17:54 EST    2.27   2.63   11  322   16  32.5  38.7 1029.3 32.3  1.027 -99.9 -99.99 -9.99
2019/12/07 18:00 EST    2.21   2.54    9  315   14  32.5  38.7 1029.4 32.3  1.027 -99.9 -99.99 -9.99
2019/12/07 18:06 EST    2.15   2.46    8  319   12  32.4  38.7 1029.5 32.3  1.027 -99.9 -99.99 -9.99
2019/12/07 18:12 EST    2.09   2.38   10  315   12  32.4  38.5 1029.6 32.3  1.027 -99.9 -99.99 -9.99
2019/12/07 18:18 EST    2.02   2.30    7  327   11  32.5  38.7 1029.7 32.4  1.027 -99.9 -99.99 -9.99
2019/12/07 18:24 EST    1.96   2.30    6  305   11  32.2  38.8 1029.8 32.3  1.027 -99.9 -99.99 -9.99
2019/12/07 18:30 EST    1.89   2.21    6  319    8  32.2  38.8 1029.9 32.3  1.027 -99.9 -99.99 -9.99
2019/12/07 18:36 EST    1.82   2.08    8  321   12  32.2  38.7 1030.0 32.4  1.027 -99.9 -99.99 -9.99
2019/12/07 18:42 EST    1.75   2.08   12  314   16  32.0  38.7 1030.0 32.3  1.027 -99.9 -99.99 -9.99
2019/12/07 18:48 EST    1.67   1.94   10  318   14  32.0  38.7 1030.0 32.3  1.027 -99.9 -99.99 -9.99
2019/12/07 18:54 EST    1.60   1.85    8  324   15  32.0  38.7 1030.1 32.3  1.027 -99.9 -99.99 -9.99
2019/12/07 19:00 EST    1.53   1.79   10  316   12  31.8  38.7 1030.2 32.1  1.026 -99.9 -99.99 -9.99
2019/12/07 19:06 EST    1.45   1.66    9  324   14  31.6  38.7 1030.3 32.1  1.026 -99.9 -99.99 -9.99
2019/12/07 19:12 EST    1.38   1.57   10  316   14  31.6  38.7 1030.3 32.1  1.026 -99.9 -99.99 -9.99
2019/12/07 19:18 EST    1.30   1.52    9  323   13  31.6  38.5 1030.4 32.1  1.026 -99.9 -99.99 -9.99
2019/12/07 19:24 EST    1.23   1.40    8  326   13  31.6  38.5 1030.4 32.1  1.026 -99.9 -99.99 -9.99
2019/12/07 19:30 EST    1.16   1.29    7  335   12  31.5  38.5 1030.4 32.2  1.026 -99.9 -99.99 -9.99
2019/12/07 19:36 EST    1.08   1.28    8  335   13  31.5  38.5 1030.6 32.2  1.026 -99.9 -99.99 -9.99
2019/12/07 19:42 EST    1.01   1.17    6  329   12  31.5  38.5 1030.6 32.2  1.027 -99.9 -99.99 -9.99
2019/12/07 19:48 EST    0.95   1.08    7  328   11  31.5  38.5 1030.6 32.3  1.027 -99.9 -99.99 -9.99
2019/12/07 19:54 EST    0.88   1.07    8  345   10  31.3  38.7 1030.6 32.2  1.027 -99.9 -99.99 -9.99
2019/12/07 20:00 EST    0.82   0.90    7  333   10  31.3  38.7 1030.7 32.2  1.027 -99.9 -99.99 -9.99
2019/12/07 20:06 EST    0.76   0.88    7  331   10  31.1  38.7 1030.7 32.2  1.027 -99.9 -99.99 -9.99
2019/12/07 20:12 EST    0.70   0.82    9  333   13  31.1  38.7 1030.7 32.2  1.026 -99.9 -99.99 -9.99
2019/12/07 20:18 EST    0.64   0.68    8  342   10  31.1  38.7 1030.8 32.2  1.026 -99.9 -99.99 -9.99
2019/12/07 20:24 EST    0.59   0.72    8  339   13  30.9  38.7 1030.8 32.2  1.026 -99.9 -99.99 -9.99
2019/12/07 20:30 EST    0.54   0.62    9  332   13  30.9  38.7 1030.8 32.2  1.026 -99.9 -99.99 -9.99
2019/12/07 20:36 EST    0.50   0.59   10  334   13  30.9  38.7 1030.9 32.2  1.027 -99.9 -99.99 -9.99
2019/12/07 20:42 EST    0.46   0.51    9  343   13  30.7  38.7 1031.0 32.3  1.027 -99.9 -99.99 -9.99
2019/12/07 20:48 EST    0.42   0.53    9  336   13  30.7  38.7 1031.1 32.2  1.026 -99.9 -99.99 -9.99
2019/12/07 20:54 EST    0.39   0.44    6  324   12  30.7  38.5 1031.1 32.3  1.027 -99.9 -99.99 -9.99
2019/12/07 21:00 EST    0.36   0.39    8  337    9  30.7  38.5 1031.2 32.2  1.027 -99.9 -99.99 -9.99
2019/12/07 21:06 EST    0.33   0.40    5  337   11  30.7  38.7 1031.2 32.3  1.027 -99.9 -99.99 -9.99
2019/12/07 21:12 EST    0.31   0.32    8  318   11  30.4  38.7 1031.3 32.3  1.027 -99.9 -99.99 -9.99
2019/12/07 21:18 EST    0.29   0.32    8  340   11  30.4  38.7 1031.3 32.3  1.027 -99.9 -99.99 -9.99
2019/12/07 21:24 EST    0.27   0.33    4  324   10  30.6  38.7 1031.5 32.3  1.027 -99.9 -99.99 -9.99
2019/12/07 21:30 EST    0.26   0.33    6  328    8  30.4  38.8 1031.5 32.2  1.027 -99.9 -99.99 -9.99
2019/12/07 21:36 EST    0.25   0.34    8  347   11  30.2  38.8 1031.6 32.2  1.026 -99.9 -99.99 -9.99
2019/12/07 21:42 EST    0.24   0.32    6  319   10  30.0  38.8 1031.6 32.3  1.027 -99.9 -99.99 -9.99
2019/12/07 21:48 EST    0.24   0.29    9  340   12  29.8  38.8 1031.7 32.2  1.027 -99.9 -99.99 -9.99
2019/12/07 21:54 EST    0.24   0.33    7  336   11  29.8  38.8 1031.6 32.3  1.027 -99.9 -99.99 -9.99
2019/12/07 22:00 EST    0.24   0.32    7  352   11  29.8  38.8 1031.7 32.3  1.027 -99.9 -99.99 -9.99
2019/12/07 22:06 EST    0.24   0.29    6  323   10  29.8  38.8 1031.7 32.3  1.027 -99.9 -99.99 -9.99
2019/12/07 22:12 EST    0.25   0.38    5  326   10  29.8  38.8 1031.8 32.3  1.027 -99.9 -99.99 -9.99
2019/12/07 22:18 EST    0.27   0.37    6  323   10  29.5  38.8 1031.7 32.3  1.027 -99.9 -99.99 -9.99
2019/12/07 22:24 EST    0.28   0.42    8  320   11  29.5  38.8 1031.8 32.3  1.027 -99.9 -99.99 -9.99
2019/12/07 22:30 EST    0.30   0.46    6  318   10  29.5  38.8 1031.8 32.3  1.027 -99.9 -99.99 -9.99
2019/12/07 22:36 EST    0.32   0.42    6  327   10  29.3  38.8 1031.9 32.3  1.027 -99.9 -99.99 -9.99
2019/12/07 22:42 EST    0.34   0.43    7  322    9  29.3  38.8 1031.9 32.3  1.027 -99.9 -99.99 -9.99
2019/12/07 22:48 EST    0.36   0.48    6  331   11  29.3  38.8 1032.0 32.3  1.027 -99.9 -99.99 -9.99
2019/12/07 22:54 EST    0.39   0.51    6  328   11  29.1  38.8 1032.0 32.3  1.027 -99.9 -99.99 -9.99
2019/12/07 23:00 EST    0.42   0.55    4  332   10  29.1  38.7 1032.0 32.4  1.027 -99.9 -99.99 -9.99
2019/12/07 23:06 EST    0.46   0.58    6  336   10  29.1  38.7 1032.0 32.4  1.027 -99.9 -99.99 -9.99
2019/12/07 23:12 EST    0.49   0.61    5  327   11  28.9  38.8 1032.1 32.3  1.027 -99.9 -99.99 -9.99
2019/12/07 23:18 EST    0.53   0.66    8  317   12  28.6  38.8 1032.1 32.3  1.027 -99.9 -99.99 -9.99
2019/12/07 23:24 EST    0.57   0.70    6  318   11  28.8  38.8 1032.1 32.4  1.027 -99.9 -99.99 -9.99
2019/12/07 23:30 EST    0.61   0.76    5  330   10  28.8  38.8 1032.1 32.3  1.027 -99.9 -99.99 -9.99
2019/12/07 23:36 EST    0.66   0.77    6  325    9  28.6  38.8 1032.1 32.3  1.027 -99.9 -99.99 -9.99
2019/12/07 23:42 EST    0.70   0.83    5  330   10  28.4  38.8 1032.2 32.3  1.027 -99.9 -99.99 -9.99
2019/12/07 23:48 EST    0.75   0.90    6  320   11  28.2  38.7 1032.2 32.3  1.027 -99.9 -99.99 -9.99
2019/12/07 23:54 EST    0.81   0.93    6  314    9  28.4  38.7 1032.2 32.4  1.027 -99.9 -99.99 -9.99
2019/12/08 00:00 EST    0.86   0.99    7  313    8  28.0  38.7 1032.2 32.4  1.027 -99.9 -99.99 -9.99
2019/12/08 00:06 EST    0.91   1.02    6  319   10  28.0  38.7 1032.2 32.4  1.027 -99.9 -99.99 -9.99
2019/12/08 00:12 EST    0.97   1.07    8  314    9  27.9  38.7 1032.1 32.4  1.027 -99.9 -99.99 -9.99
2019/12/08 00:18 EST    1.03   1.11    5  326    9  27.9  38.7 1032.1 32.4  1.027 -99.9 -99.99 -9.99
2019/12/08 00:24 EST    1.09   1.19    7  337   10  28.0  38.7 1032.1 32.5  1.027 -99.9 -99.99 -9.99
2019/12/08 00:30 EST    1.15   1.23    7  340   10  28.0  38.7 1032.2 32.4  1.027 -99.9 -99.99 -9.99
2019/12/08 00:36 EST    1.22   1.31    8  348   10  28.0  38.8 1032.3 32.3  1.027 -99.9 -99.99 -9.99
2019/12/08 00:42 EST    1.28   1.41    6  340   10  28.0  38.7 1032.3 32.5  1.027 -99.9 -99.99 -9.99
2019/12/08 00:48 EST    1.35   1.44    7  349   11  27.9  38.7 1032.4 32.4  1.027 -99.9 -99.99 -9.99
2019/12/08 00:54 EST    1.41   1.53    6  337   10  27.9  38.5 1032.5 32.5  1.027 -99.9 -99.99 -9.99
2019/12/08 01:00 EST    1.48   1.56    6  349   10  27.9  38.5 1032.5 32.4  1.027 -99.9 -99.99 -9.99
2019/12/08 01:06 EST    1.55   1.64    5  343    8  27.9  38.5 1032.5 32.4  1.027 -99.9 -99.99 -9.99
2019/12/08 01:12 EST    1.62   1.72    5  328    8  27.9  38.5 1032.6 32.5  1.027 -99.9 -99.99 -9.99
2019/12/08 01:18 EST    1.69   1.75    5  342    8  27.9  38.7 1032.6 32.5  1.027 -99.9 -99.99 -9.99
2019/12/08 01:24 EST    1.75   1.86    5  324    7  27.7  38.7 1032.7 32.4  1.027 -99.9 -99.99 -9.99
2019/12/08 01:30 EST    1.82   1.90    5  338    7  27.5  38.8 1032.8 32.4  1.027 -99.9 -99.99 -9.99
2019/12/08 01:36 EST    1.89   2.00    5  326    8  27.3  39.0 1032.9 32.6  1.027 -99.9 -99.99 -9.99
2019/12/08 01:42 EST    1.96   2.08    6  342    8  27.5  39.0 1032.8 32.5  1.027 -99.9 -99.99 -9.99
2019/12/08 01:48 EST    2.03   2.10    5  337    9  27.1  39.0 1032.9 32.5  1.027 -99.9 -99.99 -9.99
2019/12/08 01:54 EST    2.10   2.17    6  349    8  27.1  38.8 1033.0 32.5  1.027 -99.9 -99.99 -9.99
2019/12/08 02:00 EST    2.16   2.19    5  327    8  27.1  39.0 1033.0 32.5  1.027 -99.9 -99.99 -9.99
2019/12/08 02:06 EST    2.23   2.28    4  338    9  27.3  38.8 1033.0 32.3  1.027 -99.9 -99.99 -9.99
2019/12/08 02:12 EST    2.30   2.32    5  339    8  27.1  38.7 1033.0 32.5  1.027 -99.9 -99.99 -9.99
2019/12/08 02:18 EST    2.36   2.41    6  338    8  27.1  38.8 1033.1 32.5  1.027 -99.9 -99.99 -9.99
2019/12/08 02:24 EST    2.42   2.45    5  350    8  27.3  38.7 1033.0 32.5  1.027 -99.9 -99.99 -9.99
2019/12/08 02:30 EST    2.48   2.47    6    6    7  27.0  38.7 1033.0 32.3  1.027 -99.9 -99.99 -9.99
2019/12/08 02:36 EST    2.54   2.64    5  353    8  27.0  38.7 1032.9 32.5  1.027 -99.9 -99.99 -9.99
2019/12/08 02:42 EST    2.60   2.64    5  350    7  27.0  38.7 1033.1 32.5  1.027 -99.9 -99.99 -9.99
2019/12/08 02:48 EST    2.66   2.70    6  346    7  27.0  38.5 1033.2 32.2  1.027 -99.9 -99.99 -9.99
2019/12/08 02:54 EST    2.71   2.78    5  349    9  27.0  38.5 1033.1 32.3  1.027 -99.9 -99.99 -9.99
2019/12/08 03:00 EST    2.77   2.80    6  359    8  27.0  38.5 1033.1 32.4  1.027 -99.9 -99.99 -9.99
2019/12/08 03:06 EST    2.82   2.90    4  333    8  27.0  37.9 1033.1 32.3  1.027 -99.9 -99.99 -9.99
2019/12/08 03:12 EST    2.87   2.91    5  347    7  27.0  37.8 1033.2 32.4  1.027 -99.9 -99.99 -9.99
2019/12/08 03:18 EST    2.91   2.93    5    3    7  27.0  37.8 1033.1 32.4  1.027 -99.9 -99.99 -9.99
2019/12/08 03:24 EST    2.96   3.01    5    7    8  26.8  38.1 1032.9 32.4  1.027 -99.9 -99.99 -9.99
2019/12/08 03:30 EST    3.00   3.03    4    7    7  26.8  38.1 1033.0 32.4  1.027 -99.9 -99.99 -9.99
2019/12/08 03:36 EST    3.03   3.07    4  338    5  26.6  38.1 1033.1 32.4  1.027 -99.9 -99.99 -9.99
2019/12/08 03:42 EST    3.07   3.14    6  335    6  26.6  37.9 1033.3 32.4  1.027 -99.9 -99.99 -9.99
2019/12/08 03:48 EST    3.10   3.14    6  334    8  26.6  37.8 1033.3 32.4  1.027 -99.9 -99.99 -9.99
2019/12/08 03:54 EST    3.13   3.23    5  342    8  26.6  37.8 1033.4 32.4  1.027 -99.9 -99.99 -9.99
2019/12/08 04:00 EST    3.16   3.24    4  350    7  26.6  37.8 1033.3 32.3  1.027 -99.9 -99.99 -9.99
2019/12/08 04:06 EST    3.18   3.24    6  338    7  26.4  37.8 1033.4 32.4  1.027 -99.9 -99.99 -9.99
2019/12/08 04:12 EST    3.20   3.27    5  333    7  26.4  37.8 1033.4 32.5  1.027 -99.9 -99.99 -9.99
2019/12/08 04:18 EST    3.21   3.28    6  345    8  26.4  38.5 1033.3 32.6  1.027 -99.9 -99.99 -9.99
2019/12/08 04:24 EST    3.23   3.28    5  342    7  26.6  37.6 1033.3 32.2  1.027 -99.9 -99.99 -9.99
2019/12/08 04:30 EST    3.24   3.29    5  335    7  26.6  37.4 1033.3 32.3  1.027 -99.9 -99.99 -9.99
2019/12/08 04:36 EST    3.24   3.26    5  334    7  26.4  37.4 1033.3 32.2  1.027 -99.9 -99.99 -9.99
2019/12/08 04:42 EST    3.24   3.31    6  338    7  26.4  37.8 1033.2 32.4  1.027 -99.9 -99.99 -9.99
2019/12/08 04:48 EST    3.24   3.29    5  336    8  26.4  37.4 1033.1 32.2  1.027 -99.9 -99.99 -9.99
2019/12/08 04:54 EST    3.24   3.31    5  336    7  26.2  37.4 1033.1 32.2  1.027 -99.9 -99.99 -9.99
2019/12/08 05:00 EST    3.23   3.29    5  343    7  26.2  37.6 1033.2 32.3  1.027 -99.9 -99.99 -9.99
2019/12/08 05:06 EST    3.22   3.24    4  349    6  26.4  37.4 1033.2 32.3  1.027 -99.9 -99.99 -9.99
2019/12/08 05:12 EST    3.20   3.28    4  353    6  26.2  37.6 1033.4 32.3  1.027 -99.9 -99.99 -9.99
2019/12/08 05:18 EST    3.18   3.23    3  356    5  26.6  37.6 1033.4 32.4  1.027 -99.9 -99.99 -9.99
2019/12/08 05:24 EST    3.16   3.15    4    6    7  26.4  37.4 1033.4 32.3  1.027 -99.9 -99.99 -9.99
2019/12/08 05:30 EST    3.13   3.15    4   14    5  26.6  37.8 1033.5 32.3  1.027 -99.9 -99.99 -9.99
2019/12/08 05:36 EST    3.10   3.11    3   27    4  26.2  37.2 1033.5 32.2  1.027 -99.9 -99.99 -9.99
2019/12/08 05:42 EST    3.06   3.11    3   16    4  26.1  37.0 1033.6 32.2  1.027 -99.9 -99.99 -9.99
2019/12/08 05:48 EST    3.03   3.02    3   32    4  26.4  37.0 1033.7 32.2  1.027 -99.9 -99.99 -9.99
2019/12/08 05:54 EST    2.99   3.01    3  354    5  26.4  37.0 1033.7 32.3  1.027 -99.9 -99.99 -9.99
2019/12/08 06:00 EST    2.94   2.94    4  356    7  26.6  36.9 1033.8 32.3  1.027 -99.9 -99.99 -9.99
2019/12/08 06:06 EST    2.89   2.83    4  358    5  26.6  37.0 1033.8 32.3  1.027 -99.9 -99.99 -9.99
2019/12/08 06:12 EST    2.84   2.83    4    9    6  26.8  37.2 1033.9 32.2  1.027 -99.9 -99.99 -9.99
2019/12/08 06:18 EST    2.78   2.76    4  353    5  26.6  36.9 1034.0 32.3  1.027 -99.9 -99.99 -9.99
2019/12/08 06:24 EST    2.72   2.69    2    1    5  26.6  36.9 1034.0 32.2  1.027 -99.9 -99.99 -9.99
2019/12/08 06:30 EST    2.66   2.64    3  346    4  26.6  36.7 1034.1 32.3  1.027 -99.9 -99.99 -9.99
2019/12/08 06:36 EST    2.60   2.59    3  351    5  26.6  36.7 1034.1 32.3  1.027 -99.9 -99.99 -9.99
2019/12/08 06:42 EST    2.53   2.51    3  343    4  26.4  36.7 1034.2 32.2  1.027 -99.9 -99.99 -9.99
2019/12/08 06:48 EST    2.46   2.44    1   53    4  25.9  36.7 1034.3 32.2  1.027 -99.9 -99.99 -9.99
2019/12/08 06:54 EST    2.39   2.39    2   47    3  25.5  36.3 1034.3 32.1  1.027 -99.9 -99.99 -9.99
2019/12/08 07:00 EST    2.31   2.27    2   43    3  25.7  36.1 1034.5 32.1  1.027 -99.9 -99.99 -9.99
2019/12/08 07:06 EST    2.24   2.22    2   42    3  25.5  36.3 1034.6 32.2  1.027 -99.9 -99.99 -9.99
2019/12/08 07:12 EST    2.16   2.10    2   18    3  25.3  36.5 1034.5 32.2  1.027 -99.9 -99.99 -9.99
2019/12/08 07:18 EST    2.08   2.06    2   41    2  26.1  36.5 1034.6 32.2  1.027 -99.9 -99.99 -9.99
2019/12/08 07:24 EST    2.00   1.97    2   29    2  26.1  36.7 1034.6 32.4  1.027 -99.9 -99.99 -9.99
2019/12/08 07:30 EST    1.91   1.84    2   59    3  26.4  36.7 1034.6 32.3  1.027 -99.9 -99.99 -9.99
2019/12/08 07:36 EST    1.83   1.80    3   57    3  26.1  36.7 1034.7 32.2  1.027 -99.9 -99.99 -9.99
2019/12/08 07:42 EST    1.75   1.64    2   57    3  25.7  36.7 1034.7 32.3  1.027 -99.9 -99.99 -9.99
2019/12/08 07:48 EST    1.67   1.57    2   60    3  25.9  36.7 1034.8 32.3  1.027 -99.9 -99.99 -9.99
2019/12/08 07:54 EST    1.59   1.54    2   20    3  25.9  36.9 1034.8 32.2  1.027 -99.9 -99.99 -9.99
2019/12/08 08:00 EST    1.51   1.40    2   66    3  26.6  36.9 1034.9 32.1  1.027 -99.9 -99.99 -9.99
2019/12/08 08:06 EST    1.43   1.35    2   30    2  27.0  36.9 1034.8 32.1  1.026 -99.9 -99.99 -9.99
2019/12/08 08:12 EST    1.35   1.26    3   73    4  27.1  36.9 1034.8 32.1  1.027 -99.9 -99.99 -9.99
2019/12/08 08:18 EST    1.27   1.17    2   52    4  27.3  36.9 1034.8 32.1  1.027 -99.9 -99.99 -9.99
2019/12/08 08:24 EST    1.20   1.07    2   62    3  27.3  36.9 1035.0 32.1  1.027 -99.9 -99.99 -9.99
2019/12/08 08:30 EST    1.12   1.05    1   38    2  27.9  36.9 1035.0 32.1  1.026 -99.9 -99.99 -9.99
2019/12/08 08:36 EST    1.06   0.91    1   76    2  28.6  36.7 1035.0 32.1  1.027 -99.9 -99.99 -9.99
2019/12/08 08:42 EST    0.99   0.86    2   37    3  28.0  36.7 1035.0 32.1  1.026 -99.9 -99.99 -9.99
2019/12/08 08:48 EST    0.92   0.82    1   71    3  28.6  36.7 1035.0 32.1  1.027 -99.9 -99.99 -9.99
2019/12/08 08:54 EST    0.86   0.70    1   72    3  28.4  36.7 1034.9 32.1  1.026 -99.9 -99.99 -9.99
2019/12/08 09:00 EST    0.80   0.72    0   10    2  29.5  36.7 1034.9 32.0  1.026 -99.9 -99.99 -9.99
2019/12/08 09:06 EST    0.75   0.61    1  153    2  30.6  36.7 1034.9 32.1  1.026 -99.9 -99.99 -9.99
2019/12/08 09:12 EST    0.70   0.55    1  101    2  30.6  36.7 1034.9 32.1  1.027 -99.9 -99.99 -9.99
2019/12/08 09:18 EST    0.65   0.56    1  147    2  31.1  36.7 1034.9 32.1  1.027 -99.9 -99.99 -9.99
2019/12/08 09:24 EST    0.60   0.46    2  165    4  31.6  37.0 1034.8 32.2  1.027 -99.9 -99.99 -9.99
2019/12/08 09:30 EST    0.56   0.47    3  175    5  31.5  36.9 1034.8 32.3  1.027 -99.9 -99.99 -9.99
2019/12/08 09:36 EST    0.52   0.40    3  193    6  31.3  37.2 1034.7 32.2  1.027 -99.9 -99.99 -9.99
2019/12/08 09:42 EST    0.49   0.38    2  199    4  31.8  37.2 1034.8 32.3  1.027 -99.9 -99.99 -9.99
2019/12/08 09:48 EST    0.46   0.32    2  215    5  31.6  37.2 1034.6 32.3  1.027 -99.9 -99.99 -9.99
2019/12/08 09:54 EST    0.43   0.33    2  211    3  32.0  37.4 1034.7 32.3  1.027 -99.9 -99.99 -9.99
2019/12/08 10:00 EST    0.40   0.30    2  167    6  32.2  37.6 1034.6 32.4  1.027 -99.9 -99.99 -9.99
2019/12/08 10:06 EST    0.38   0.30    4  179    5  32.4  37.8 1034.5 32.3  1.027 -99.9 -99.99 -9.99
2019/12/08 10:12 EST    0.36   0.29    4  180    8  32.4  37.8 1034.4 32.3  1.027 -99.9 -99.99 -9.99
2019/12/08 10:18 EST    0.34   0.30    3  180    5  32.5  37.8 1034.3 32.3  1.027 -99.9 -99.99 -9.99
2019/12/08 10:24 EST    0.33   0.28    5  134    8  32.4  37.8 1034.1 32.4  1.027 -99.9 -99.99 -9.99
2019/12/08 10:30 EST    0.32   0.24    2  180    7  33.1  37.9 1034.1 32.4  1.027 -99.9 -99.99 -9.99
2019/12/08 10:36 EST    0.31   0.28    4  134    6  32.7  37.8 1034.1 32.4  1.027 -99.9 -99.99 -9.99
2019/12/08 10:42 EST    0.31   0.24    4  140    6  33.3  37.9 1034.0 32.4  1.027 -99.9 -99.99 -9.99
2019/12/08 10:48 EST    0.31   0.29    4  165    8  33.4  37.8 1034.0 32.3  1.027 -99.9 -99.99 -9.99
2019/12/08 10:54 EST    0.31   0.25    6  154    7  33.4  37.8 1033.8 32.4  1.027 -99.9 -99.99 -9.99
2019/12/08 11:00 EST    0.31   0.29    8  152   10  33.4  37.8 1033.6 32.4  1.027 -99.9 -99.99 -9.99
2019/12/08 11:06 EST    0.32   0.30    8  165   10  34.3  38.1 1033.6 32.4  1.027 -99.9 -99.99 -9.99
2019/12/08 11:12 EST    0.33   0.30    7  165   11  34.0  38.1 1033.5 32.4  1.027 -99.9 -99.99 -9.99
2019/12/08 11:18 EST    0.34   0.30    8  167   10  34.5  38.1 1033.5 32.5  1.027 -99.9 -99.99 -9.99
2019/12/08 11:24 EST    0.36   0.30    6  185   10  35.1  38.3 1033.5 32.5  1.027 -99.9 -99.99 -9.99
2019/12/08 11:30 EST    0.38   0.32    9  221   11  33.8  38.3 1033.4 32.4  1.027 -99.9 -99.99 -9.99
2019/12/08 11:36 EST    0.40   0.32    7  223   10  33.8  38.3 1033.4 32.6  1.027 -99.9 -99.99 -9.99
2019/12/08 11:42 EST    0.42   0.39    6  219   10  33.8  38.8 1033.3 32.7  1.027 -99.9 -99.99 -9.99
2019/12/08 11:48 EST    0.45   0.38    6  223    9  34.3  39.2 1033.2 32.6  1.027 -99.9 -99.99 -9.99
2019/12/08 11:54 EST    0.48   0.43    6  233    8  34.0  39.2 1033.2 32.5  1.027 -99.9 -99.99 -9.99
2019/12/08 12:00 EST    0.51   0.41    8  228   10  33.6  39.2 1033.1 32.7  1.027 -99.9 -99.99 -9.99
2019/12/08 12:06 EST    0.54   0.40    7  223   10  34.2  39.2 1033.0 32.8  1.027 -99.9 -99.99 -9.99
2019/12/08 12:12 EST    0.58   0.44    9  230   11  34.2  39.0 1032.9 32.6  1.027 -99.9 -99.99 -9.99
2019/12/08 12:18 EST    0.62   0.50    9  215   11  34.9  39.4 1032.9 32.7  1.027 -99.9 -99.99 -9.99
2019/12/08 12:24 EST    0.66   0.57    9  222   11  35.1  39.0 1032.8 32.4  1.027 -99.9 -99.99 -9.99
2019/12/08 12:30 EST    0.71   0.56    8  229   11  35.2  38.8 1032.6 32.4  1.027 -99.9 -99.99 -9.99
2019/12/08 12:36 EST    0.75   0.61   10  209   12  35.8  38.7 1032.5 32.5  1.027 -99.9 -99.99 -9.99
2019/12/08 12:42 EST    0.80   0.61    8  207   12  36.0  37.9 1032.5 32.4  1.027 -99.9 -99.99 -9.99
2019/12/08 12:48 EST    0.85   0.74   10  221   13  35.6  38.8 1032.4 32.7  1.027 -99.9 -99.99 -9.99
2019/12/08 12:54 EST    0.90   0.79   11  212   12  36.1  38.8 1032.3 32.4  1.027 -99.9 -99.99 -9.99
2019/12/08 13:00 EST    0.96   0.74   10  207   12  36.1  39.4 1032.2 32.6  1.027 -99.9 -99.99 -9.99
2019/12/08 13:06 EST    1.01   0.90   11  214   14  36.1  39.4 1032.2 32.7  1.027 -99.9 -99.99 -9.99
2019/12/08 13:12 EST    1.07   0.92   11  223   13  36.0  39.7 1032.2 32.7  1.027 -99.9 -99.99 -9.99
2019/12/08 13:18 EST    1.13   0.99   10  228   13  35.8  39.7 1032.2 32.7  1.027 -99.9 -99.99 -9.99
2019/12/08 13:24 EST    1.19   1.02   10  230   14  36.0  39.6 1032.3 32.7  1.027 -99.9 -99.99 -9.99
2019/12/08 13:30 EST    1.25   1.10   10  222   15  35.8  39.0 1032.2 32.5  1.027 -99.9 -99.99 -9.99
2019/12/08 13:36 EST    1.31   1.15    9  228   11  36.5  39.0 1032.2 32.5  1.027 -99.9 -99.99 -9.99
2019/12/08 13:42 EST    1.37   1.27   11  208   12  36.9  38.8 1032.1 32.5  1.027 -99.9 -99.99 -9.99
2019/12/08 13:48 EST    1.44   1.26   12  215   16  36.7  39.0 1032.0 32.6  1.027 -99.9 -99.99 -9.99
2019/12/08 13:54 EST    1.50   1.36   12  221   14  36.9  39.0 1031.9 32.5  1.027 -99.9 -99.99 -9.99
2019/12/08 14:00 EST    1.56   1.46   11  213   14  37.0  39.2 1031.9 32.6  1.027 -99.9 -99.99 -9.99
2019/12/08 14:06 EST    1.63   1.44   10  225   13  37.0  39.2 1031.8 32.5  1.027 -99.9 -99.99 -9.99
2019/12/08 14:12 EST    1.69   1.56   13  225   15  36.9  39.2 1031.7 32.6  1.027 -99.9 -99.99 -9.99
2019/12/08 14:18 EST    1.76   1.62   11  223   15  37.2  39.0 1031.7 32.5  1.027 -99.9 -99.99 -9.99
2019/12/08 14:24 EST    1.82   1.65   14  223   16  37.2  38.8 1031.6 32.4  1.027 -99.9 -99.99 -9.99
2019/12/08 14:30 EST    1.89   1.75   12  210   16  37.6  38.7 1031.5 32.4  1.027 -99.9 -99.99 -9.99
2019/12/08 14:36 EST    1.95   1.84   12  209   16  37.9  38.5 1031.6 32.4  1.027 -99.9 -99.99 -9.99
2019/12/08 14:42 EST    2.01   1.93   13  214   16  38.3  38.5 1031.6 32.5  1.027 -99.9 -99.99 -9.99
2019/12/08 14:48 EST    2.07   1.99   13  211   17  37.9  38.7 1031.5 32.4  1.027 -99.9 -99.99 -9.99
2019/12/08 14:54 EST    2.13   2.09   15  211   17  38.3  38.7 1031.5 32.5  1.027 -99.9 -99.99 -9.99
2019/12/08 15:00 EST    2.19   2.11   10  198   16  38.5  38.7 1031.6 32.4  1.027 -99.9 -99.99 -9.99
2019/12/08 15:06 EST    2.25   2.24   14  206   15  38.7  38.7 1031.5 32.5  1.027 -99.9 -99.99 -9.99
2019/12/08 15:12 EST    2.31   2.27   11  203   16  39.0  38.7 1031.5 32.4  1.027 -99.9 -99.99 -9.99
2019/12/08 15:18 EST    2.36   2.33   13  208   17  38.8  38.7 1031.5 32.5  1.027 -99.9 -99.99 -9.99
2019/12/08 15:24 EST    2.42   2.47   16  211   18  39.0  38.7 1031.4 32.4  1.027 -99.9 -99.99 -9.99
2019/12/08 15:30 EST    2.47   2.48   15  206   19  39.2  38.7 1031.5 32.4  1.027 -99.9 -99.99 -9.99
2019/12/08 15:36 EST    2.52   2.55   13  209   18  39.6  38.7 1031.5 32.4  1.027 -99.9 -99.99 -9.99
2019/12/08 15:42 EST    2.56   2.63   13  212   19  39.2  38.7 1031.5 32.4  1.027 -99.9 -99.99 -9.99
2019/12/08 15:48 EST    2.60   2.65   15  208   19  39.7  38.7 1031.4 32.4  1.027 -99.9 -99.99 -9.99
2019/12/08 15:54 EST    2.64   2.72   14  203   17  39.6  38.7 1031.4 32.5  1.027 -99.9 -99.99 -9.99
2019/12/08 16:00 EST    2.68   2.85   16  207   17  39.7  38.7 1031.4 32.5  1.027 -99.9 -99.99 -9.99
2019/12/08 16:06 EST    2.72   2.88   15  208   20  40.1  38.7 1031.4 32.5  1.027 -99.9 -99.99 -9.99
2019/12/08 16:12 EST    2.75   2.89   14  207   18  40.1  38.5 1031.4 32.4  1.027 -99.9 -99.99 -9.99
2019/12/08 16:18 EST    2.78   2.97   14  212   19  40.1  38.5 1031.5 32.4  1.027 -99.9 -99.99 -9.99
2019/12/08 16:24 EST    2.80   2.98   14  204   18  40.3  38.7 1031.6 32.4  1.027 -99.9 -99.99 -9.99
2019/12/08 16:30 EST    2.82   3.04   15  221   22  40.5  38.7 1031.5 32.4  1.027 -99.9 -99.99 -9.99
2019/12/08 16:36 EST    2.84   3.12   17  222   22  40.5  38.7 1031.4 32.4  1.027 -99.9 -99.99 -9.99
2019/12/08 16:42 EST    2.85   3.10   16  216   19  40.6  38.7 1031.4 32.4  1.027 -99.9 -99.99 -9.99
2019/12/08 16:48 EST    2.86   3.12   17  217   21  40.6  38.7 1031.4 32.4  1.027 -99.9 -99.99 -9.99
2019/12/08 16:54 EST    2.86   3.16   17  221   21  40.8  38.7 1031.3 32.1  1.026 -99.9 -99.99 -9.99
2019/12/08 17:00 EST    2.87   3.21   17  219   20  41.0  38.7 1031.3 32.0  1.026 -99.9 -99.99 -9.99
2019/12/08 17:06 EST    2.86   3.13   17  207   21  41.0  38.7 1031.3 32.3  1.027 -99.9 -99.99 -9.99
2019/12/08 17:12 EST    2.86   3.16   15  213   18  41.4  38.5 1031.4 32.4  1.027 -99.9 -99.99 -9.99
2019/12/08 17:18 EST    2.85   3.13   17  219   20  41.4  38.7 1031.3 32.4  1.027 -99.9 -99.99 -9.99
2019/12/08 17:24 EST    2.83   3.10   16  208   21  41.4  38.7 1031.2 32.3  1.027 -99.9 -99.99 -9.99
2019/12/08 17:30 EST    2.81   3.14   17  212   20  41.5  38.5 1031.1 32.4  1.027 -99.9 -99.99 -9.99
2019/12/08 17:36 EST    2.79   3.10   16  205   20  41.5  38.5 1031.1 32.4  1.027 -99.9 -99.99 -9.99
2019/12/08 17:42 EST    2.76   3.08   18  208   21  41.7  38.5 1030.9 32.4  1.027 -99.9 -99.99 -9.99
2019/12/08 17:48 EST    2.73   3.09   17  208   20  41.7  38.5 1031.0 32.4  1.027 -99.9 -99.99 -9.99
2019/12/08 17:54 EST    2.70   3.00   16  211   20  41.9  38.5 1030.8 32.4  1.027 -99.9 -99.99 -9.99
2019/12/08 18:00 EST    2.66   2.96   15  201   19  41.9  38.5 1030.9 32.4  1.027 -99.9 -99.99 -9.99
2019/12/08 18:06 EST    2.62   2.96   14  211   18  42.1  38.5 1030.9 32.4  1.027 -99.9 -99.99 -9.99
2019/12/08 18:12 EST    2.57   2.85   16  205   20  42.1  38.3 1030.9 32.4  1.027 -99.9 -99.99 -9.99
2019/12/08 18:18 EST    2.52   2.77   16  210   17  42.3  38.3 1030.8 32.4  1.027 -99.9 -99.99 -9.99
2019/12/08 18:24 EST    2.47   2.68   16  207   19  42.4  38.3 1030.7 32.4  1.027 -99.9 -99.99 -9.99
2019/12/08 18:30 EST    2.41   2.66   16  207   19  42.4  38.3 1030.9 32.4  1.027 -99.9 -99.99 -9.99
2019/12/08 18:36 EST    2.35   2.62   16  214   19  42.4  38.3 1030.9 32.4  1.027 -99.9 -99.99 -9.99
2019/12/08 18:42 EST    2.29   2.57   16  214   19  42.8  38.3 1030.8 32.4  1.027 -99.9 -99.99 -9.99
2019/12/08 18:48 EST    2.22   2.45   17  205   20  42.6  38.3 1030.5 32.4  1.027 -99.9 -99.99 -9.99
2019/12/08 18:54 EST    2.15   2.37   15  208   20  42.8  38.3 1030.3 32.4  1.027 -99.9 -99.99 -9.99
2019/12/08 19:00 EST    2.08   2.32   15  212   18  42.8  38.3 1030.5 32.4  1.027 -99.9 -99.99 -9.99
2019/12/08 19:06 EST    2.00   2.24   16  215   20  43.0  38.1 1030.4 32.4  1.027 -99.9 -99.99 -9.99
2019/12/08 19:12 EST    1.93   2.17   16  209   19  43.2  38.1 1030.4 32.4  1.027 -99.9 -99.99 -9.99
2019/12/08 19:18 EST    1.85   2.07   17  214   21  43.2  38.1 1030.4 32.4  1.027 -99.9 -99.99 -9.99
2019/12/08 19:24 EST    1.77   1.92   17  214   20  43.3  38.1 1030.3 32.3  1.027 -99.9 -99.99 -9.99
2019/12/08 19:30 EST    1.68   1.84   16  210   20  43.5  37.9 1030.4 32.4  1.027 -99.9 -99.99 -9.99
2019/12/08 19:36 EST    1.60   1.77   15  211   20  43.5  38.1 1030.3 32.3  1.027 -99.9 -99.99 -9.99
2019/12/08 19:42 EST    1.52   1.66   16  215   19  43.7  37.9 1030.2 32.4  1.027 -99.9 -99.99 -9.99
2019/12/08 19:48 EST    1.43   1.55   17  208   20  43.7  37.9 1030.1 32.4  1.027 -99.9 -99.99 -9.99
2019/12/08 19:54 EST    1.35   1.45   15  206   21  43.7  37.9 1030.1 32.4  1.027 -99.9 -99.99 -9.99
2019/12/08 20:00 EST    1.27   1.36   14  208   18  43.9  37.9 1030.1 32.4  1.027 -99.9 -99.99 -9.99
2019/12/08 20:06 EST    1.18   1.30   17  208   20  43.9  37.9 1029.9 32.4  1.027 -99.9 -99.99 -9.99
2019/12/08 20:12 EST    1.10   1.19   16  206   21  43.9  37.9 1029.8 32.4  1.027 -99.9 -99.99 -9.99
2019/12/08 20:18 EST    1.02   1.05   18  206   21  44.1  37.9 1029.7 32.4  1.027 -99.9 -99.99 -9.99
2019/12/08 20:24 EST    0.94   1.04   15  211   19  44.2  37.9 1029.8 32.4  1.027 -99.9 -99.99 -9.99
2019/12/08 20:30 EST    0.86   0.90   16  217   20  44.6  37.9 1029.7 32.4  1.027 -99.9 -99.99 -9.99
2019/12/08 20:36 EST    0.79   0.87   17  215   21  44.6  37.9 1029.7 32.4  1.027 -99.9 -99.99 -9.99
2019/12/08 20:42 EST    0.72   0.82   17  217   21  44.6  37.9 1029.6 32.4  1.027 -99.9 -99.99 -9.99
2019/12/08 20:48 EST    0.65   0.74   16  214   22  44.8  37.9 1029.5 32.4  1.027 -99.9 -99.99 -9.99
2019/12/08 20:54 EST    0.58   0.66   17  209   21  44.8  37.9 1029.4 32.4  1.027 -99.9 -99.99 -9.99
2019/12/08 21:00 EST    0.52   0.61   18  208   22  45.0  37.9 1029.3 32.4  1.027 -99.9 -99.99 -9.99
2019/12/08 21:06 EST    0.46   0.52   17  205   21  45.0  37.9 1029.3 32.4  1.027 -99.9 -99.99 -9.99
2019/12/08 21:12 EST    0.40   0.42   16  206   20  45.0  37.9 1029.3 32.4  1.027 -99.9 -99.99 -9.99
2019/12/08 21:18 EST    0.35   0.40   17  205   22  45.0  38.1 1029.2 32.4  1.027 -99.9 -99.99 -9.99
2019/12/08 21:24 EST    0.31   0.35   17  205   21  45.1  38.1 1029.2 32.4  1.027 -99.9 -99.99 -9.99
2019/12/08 21:30 EST    0.26   0.30   17  207   20  45.1  38.1 1029.1 32.4  1.027 -99.9 -99.99 -9.99
2019/12/08 21:36 EST    0.22   0.27   17  206   19  45.3  38.1 1029.1 32.4  1.027 -99.9 -99.99 -9.99
2019/12/08 21:42 EST    0.19   0.23   14  205   20  45.1  38.1 1029.1 32.4  1.027 -99.9 -99.99 -9.99
2019/12/08 21:48 EST    0.16   0.22   13  206   17  45.3  38.1 1029.1 32.4  1.027 -99.9 -99.99 -9.99
2019/12/08 21:54 EST    0.13   0.22   15  204   18  45.3  38.1 1029.1 32.4  1.027 -99.9 -99.99 -9.99
2019/12/08 22:00 EST    0.11   0.21   13  205   18  45.3  38.1 1029.1 32.4  1.027 -99.9 -99.99 -9.99
2019/12/08 22:06 EST    0.09   0.14   15  207   18  45.5  38.1 1029.1 32.4  1.027 -99.9 -99.99 -9.99
2019/12/08 22:12 EST    0.08   0.21   13  209   19  45.7  38.1 1029.2 32.4  1.027 -99.9 -99.99 -9.99
2019/12/08 22:18 EST    0.07   0.16   14  209   17  45.7  38.1 1029.2 32.3  1.027 -99.9 -99.99 -9.99
2019/12/08 22:24 EST    0.07   0.19   17  208   20  45.9  38.1 1029.1 32.3  1.027 -99.9 -99.99 -9.99
2019/12/08 22:30 EST    0.06   0.19   15  207   21  45.9  38.1 1029.0 32.3  1.027 -99.9 -99.99 -9.99
2019/12/08 22:36 EST    0.07   0.19   15  204   18  45.9  38.1 1029.0 32.4  1.027 -99.9 -99.99 -9.99
2019/12/08 22:42 EST    0.07   0.23   13  202   17  45.9  38.1 1029.0 32.4  1.027 -99.9 -99.99 -9.99
2019/12/08 22:48 EST    0.08   0.19   14  201   16  45.9  38.1 1028.8 32.4  1.027 -99.9 -99.99 -9.99
2019/12/08 22:54 EST    0.09   0.24   13  199   17  45.9  38.1 1028.7 32.4  1.027 -99.9 -99.99 -9.99
2019/12/08 23:00 EST    0.11   0.25   14  200   17  46.0  38.1 1028.6 32.4  1.027 -99.9 -99.99 -9.99
2019/12/08 23:06 EST    0.13   0.25   13  199   19  46.0  38.1 1028.5 32.4  1.027 -99.9 -99.99 -9.99
2019/12/08 23:12 EST    0.15   0.33   13  197   16  46.0  38.1 1028.5 32.4  1.027 -99.9 -99.99 -9.99
2019/12/08 23:18 EST    0.18   0.34   13  200   17  46.2  38.1 1028.5 32.4  1.027 -99.9 -99.99 -9.99
2019/12/08 23:24 EST    0.20   0.43   14  198   17  46.2  38.1 1028.4 32.4  1.027 -99.9 -99.99 -9.99
2019/12/08 23:30 EST    0.23   0.38   14  198   18  46.4  38.1 1028.2 32.4  1.027 -99.9 -99.99 -9.99
2019/12/08 23:36 EST    0.27   0.50   15  195   17  46.6  38.1 1028.0 32.4  1.027 -99.9 -99.99 -9.99
2019/12/08 23:42 EST    0.31   0.55   13  197   18  46.8  38.1 1028.0 32.5  1.027 -99.9 -99.99 -9.99
2019/12/08 23:48 EST    0.34   0.57   16  198   19  46.8  38.1 1027.8 32.4  1.027 -99.9 -99.99 -9.99
2019/12/08 23:54 EST    0.39   0.68   16  196   19  46.8  38.1 1027.8 32.4  1.027 -99.9 -99.99 -9.99
2019/12/09 00:00 EST    0.43   0.70   16  199   20  46.9  38.1 1027.8 32.4  1.027 -99.9 -99.99 -9.99
2019/12/09 00:06 EST    0.48   0.78   18  206   21  47.1  38.1 1028.0 32.4  1.027 -99.9 -99.99 -9.99
2019/12/09 00:12 EST    0.53   0.78   15  202   21  47.1  38.1 1028.0 32.4  1.027 -99.9 -99.99 -9.99
2019/12/09 00:18 EST    0.58   0.86   15  197   20  47.3  38.1 1027.8 32.4  1.027 -99.9 -99.99 -9.99
2019/12/09 00:24 EST    0.63   0.86   15  200   18  47.3  38.1 1027.8 32.4  1.027 -99.9 -99.99 -9.99
2019/12/09 00:30 EST    0.69   0.92   14  197   19  47.1  38.1 1027.7 32.4  1.027 -99.9 -99.99 -9.99
2019/12/09 00:36 EST    0.74   0.99   13  194   17  47.3  38.1 1027.5 32.4  1.027 -99.9 -99.99 -9.99
2019/12/09 00:42 EST    0.80   0.99   15  196   18  47.3  38.1 1027.3 32.4  1.027 -99.9 -99.99 -9.99
2019/12/09 00:48 EST    0.86   1.13   14  195   17  47.3  38.1 1027.3 32.4  1.027 -99.9 -99.99 -9.99
2019/12/09 00:54 EST    0.93   1.13   14  194   17  47.3  38.3 1027.1 32.3  1.027 -99.9 -99.99 -9.99
2019/12/09 01:00 EST    0.99   1.18   13  193   16  47.1  38.3 1027.0 32.3  1.027 -99.9 -99.99 -9.99
2019/12/09 01:06 EST    1.06   1.27   13  188   16  47.1  38.3 1026.8 32.3  1.027 -99.9 -99.99 -9.99
2019/12/09 01:12 EST    1.12   1.21   13  187   17  47.5  38.3 1026.7 32.3  1.027 -99.9 -99.99 -9.99
2019/12/09 01:18 EST    1.19   1.37   12  189   17  47.3  38.3 1026.8 32.3  1.027 -99.9 -99.99 -9.99
2019/12/09 01:24 EST    1.26   1.42   11  192   15  47.3  38.3 1026.8 32.3  1.027 -99.9 -99.99 -9.99
2019/12/09 01:30 EST    1.33   1.47   14  197   17  47.3  38.1 1026.9 32.4  1.027 -99.9 -99.99 -9.99
2019/12/09 01:36 EST    1.41   1.51   13  199   17  47.8  38.1 1027.0 32.4  1.027 -99.9 -99.99 -9.99
2019/12/09 01:42 EST    1.48   1.54   12  194   17  47.8  38.1 1026.8 32.4  1.027 -99.9 -99.99 -9.99
2019/12/09 01:48 EST    1.55   1.67   12  193   14  47.8  38.1 1026.8 32.4  1.027 -99.9 -99.99 -9.99
2019/12/09 01:54 EST    1.63   1.64   10  189   14  47.7  38.1 1026.5 32.4  1.027 -99.9 -99.99 -9.99
2019/12/09 02:00 EST    1.70   1.87   12  193   14  47.8  38.3 1026.5 32.3  1.027 -99.9 -99.99 -9.99
2019/12/09 02:06 EST    1.77   1.81   12  197   15  48.0  38.1 1026.5 32.4  1.027 -99.9 -99.99 -9.99
2019/12/09 02:12 EST    1.85   1.87   11  193   16  48.2  38.3 1026.3 32.4  1.027 -99.9 -99.99 -9.99
2019/12/09 02:18 EST    1.92   2.01   11  193   14  48.2  38.3 1026.2 32.5  1.027 -99.9 -99.99 -9.99
2019/12/09 02:24 EST    2.00   1.96   11  191   12  48.0  38.5 1026.1 32.4  1.027 -99.9 -99.99 -9.99
2019/12/09 02:30 EST    2.07   2.06   13  201   15  48.4  38.5 1026.3 32.4  1.027 -99.9 -99.99 -9.99
2019/12/09 02:36 EST    2.15   2.12   13  201   15  48.6  38.5 1026.4 32.4  1.027 -99.9 -99.99 -9.99
2019/12/09 02:42 EST    2.22   2.20   12  198   18  48.6  38.5 1026.3 32.4  1.027 -99.9 -99.99 -9.99
2019/12/09 02:48 EST    2.30   2.25   12  196   16  48.6  38.5 1026.2 32.4  1.027 -99.9 -99.99 -9.99
2019/12/09 02:54 EST    2.37   2.33   12  199   17  48.7  38.5 1026.1 32.4  1.027 -99.9 -99.99 -9.99
2019/12/09 03:00 EST    2.44   2.45   12  199   15  48.9  38.5 1025.9 32.4  1.027 -99.9 -99.99 -9.99
2019/12/09 03:06 EST    2.51   2.43   11  196   15  48.9  38.5 1025.8 32.4  1.027 -99.9 -99.99 -9.99
2019/12/09 03:12 EST    2.58   2.51   12  197   14  48.9  38.5 1025.8 32.4  1.027 -99.9 -99.99 -9.99
2019/12/09 03:18 EST    2.65   2.46   12  201   14  49.3  38.5 1025.7 32.4  1.027 -99.9 -99.99 -9.99
2019/12/09 03:24 EST    2.72   2.51   11  199   16  49.1  38.5 1025.6 32.5  1.027 -99.9 -99.99 -9.99
2019/12/09 03:30 EST    2.78   2.65   13  197   16  49.5  38.5 1025.6 32.4  1.027 -99.9 -99.99 -9.99
2019/12/09 03:36 EST    2.85   2.53   10  199   15  49.3  38.5 1025.5 32.5  1.027 -99.9 -99.99 -9.99
2019/12/09 03:42 EST    2.91   2.66   11  199   12  49.3  38.5 1025.5 32.5  1.027 -99.9 -99.99 -9.99
2019/12/09 03:48 EST    2.96   2.79   10  196   15  49.3  38.5 1025.4 32.5  1.027 -99.9 -99.99 -9.99
2019/12/09 03:54 EST    3.02   2.70    9  199   11  49.1  38.5 1025.4 32.5  1.027 -99.9 -99.99 -9.99
2019/12/09 04:00 EST    3.07   2.84    9  200   11  49.3  38.5 1025.3 32.4  1.027 -99.9 -99.99 -9.99
2019/12/09 04:06 EST    3.12   2.88    8  188   10  48.9  38.5 1025.3 32.4  1.027 -99.9 -99.99 -9.99
2019/12/09 04:12 EST    3.17   2.82    7  189   10  49.1  38.5 1025.3 32.4  1.027 -99.9 -99.99 -9.99
2019/12/09 04:18 EST    3.22   2.94    7  185   11  49.1  38.5 1025.2 32.4  1.027 -99.9 -99.99 -9.99
2019/12/09 04:24 EST    3.26   3.02    7  179    8  49.1  38.5 1025.1 32.4  1.027 -99.9 -99.99 -9.99
2019/12/09 04:30 EST    3.30   2.98    6  176    8  49.1  38.5 1025.0 32.4  1.027 -99.9 -99.99 -9.99
2019/12/09 04:36 EST    3.33   3.03    6  180    8  49.1  38.5 1024.9 32.4  1.027 -99.9 -99.99 -9.99
2019/12/09 04:42 EST    3.36   3.12    6  179    8  49.1  38.5 1024.9 32.4  1.027 -99.9 -99.99 -9.99
2019/12/09 04:48 EST    3.39   3.06    7  180    8  49.3  38.5 1024.9 32.4  1.027 -99.9 -99.99 -9.99
2019/12/09 04:54 EST    3.41   3.13    6  181    8  49.3  38.5 1024.8 32.4  1.027 -99.9 -99.99 -9.99
2019/12/09 05:00 EST    3.43   3.19    7  175    8  49.5  38.5 1024.6 32.4  1.027 -99.9 -99.99 -9.99
2019/12/09 05:06 EST    3.44   3.15    7  169    8  49.1  38.5 1024.6 32.4  1.027 -99.9 -99.99 -9.99
2019/12/09 05:12 EST    3.45   3.26    6  169    7  49.1  38.5 1024.6 32.4  1.027 -99.9 -99.99 -9.99
2019/12/09 05:18 EST    3.46   3.30    7  186    9  49.3  38.5 1024.5 32.4  1.027 -99.9 -99.99 -9.99
2019/12/09 05:24 EST    3.46   3.22    8  170    9  49.5  38.5 1024.5 32.4  1.027 -99.9 -99.99 -9.99
2019/12/09 05:30 EST    3.46   3.31    8  168   11  49.1  38.5 1024.4 32.4  1.027 -99.9 -99.99 -9.99
2019/12/09 05:36 EST    3.45   3.30   10  173   13  49.5  38.7 1024.2 32.4  1.027 -99.9 -99.99 -9.99
2019/12/09 05:42 EST    3.44   3.18    9  171   13  49.3  38.7 1024.2 32.4  1.027 -99.9 -99.99 -9.99
2019/12/09 05:48 EST    3.43   3.24   11  177   12  49.5  38.7 1024.1 32.3  1.027 -99.9 -99.99 -9.99
2019/12/09 05:54 EST    3.41   3.24   11  180   13  50.0  38.7 1024.1 32.4  1.027 -99.9 -99.99 -9.99
2019/12/09 06:00 EST    3.38   3.17   11  185   14  50.0  38.7 1024.0 32.4  1.027 -99.9 -99.99 -9.99
2019/12/09 06:06 EST    3.35   3.30   10  181   13  49.8  38.7 1023.9 32.4  1.027 -99.9 -99.99 -9.99
2019/12/09 06:12 EST    3.32   3.20    9  178   11  49.6  38.7 1023.8 32.4  1.027 -99.9 -99.99 -9.99
2019/12/09 06:18 EST    3.29   3.11    8  175   11  49.5  38.7 1023.9 32.4  1.027 -99.9 -99.99 -9.99
2019/12/09 06:24 EST    3.24   3.16    7  177   10  49.5  38.7 1023.9 32.4  1.027 -99.9 -99.99 -9.99
2019/12/09 06:30 EST    3.20   3.06    7  169    9  49.5  38.8 1023.8 32.4  1.027 -99.9 -99.99 -9.99
2019/12/09 06:36 EST    3.15   3.02    6  178    8  49.5  38.8 1023.8 32.4  1.027 -99.9 -99.99 -9.99
2019/12/09 06:42 EST    3.10   3.02    6  176    7  49.3  38.8 1023.8 32.3  1.027 -99.9 -99.99 -9.99
2019/12/09 06:48 EST    3.04   2.94    6  182    7  49.3  38.8 1023.8 32.4  1.027 -99.9 -99.99 -9.99
2019/12/09 06:54 EST    2.98   2.88    5  179    7  49.5  38.8 1023.6 32.4  1.027 -99.9 -99.99 -9.99
2019/12/09 07:00 EST    2.92   2.88    5  171    5  49.5  38.8 1023.5 32.4  1.027 -99.9 -99.99 -9.99
2019/12/09 07:06 EST    2.85   2.81    5  188    6  49.5  38.8 1023.5 32.4  1.027 -99.9 -99.99 -9.99
2019/12/09 07:12 EST    2.78   2.78    4  213    6  48.9  38.8 1023.5 32.4  1.027 -99.9 -99.99 -9.99
2019/12/09 07:18 EST    2.70   2.72    4  217    5  49.1  38.8 1023.5 32.4  1.027 -99.9 -99.99 -9.99
2019/12/09 07:24 EST    2.63   2.59    4  210    5  48.9  38.8 1023.5 32.4  1.027 -99.9 -99.99 -9.99
2019/12/09 07:30 EST    2.55   2.56    6  196    7  49.3  38.8 1023.5 32.4  1.027 -99.9 -99.99 -9.99
2019/12/09 07:36 EST    2.46   2.50    9  190   11  49.8  38.8 1023.5 32.4  1.027 -99.9 -99.99 -9.99
2019/12/09 07:42 EST    2.38   2.40    8  190   11  49.8  38.7 1023.4 32.4  1.027 -99.9 -99.99 -9.99
2019/12/09 07:48 EST    2.29   2.30    9  189   11  50.0  38.7 1023.3 32.4  1.027 -99.9 -99.99 -9.99
2019/12/09 07:54 EST    2.20   2.18    9  189   11  50.2  38.7 1023.3 32.4  1.027 -99.9 -99.99 -9.99
2019/12/09 08:00 EST    2.11   2.07   10  187   11  50.2  38.8 1023.1 32.3  1.027 -99.9 -99.99 -9.99
2019/12/09 08:06 EST    2.02   2.05    9  189   11  50.4  38.7 1023.1 32.4  1.027 -99.9 -99.99 -9.99
2019/12/09 08:12 EST    1.93   1.94    9  184   12  50.7  38.7 1023.0 32.4  1.027 -99.9 -99.99 -9.99
2019/12/09 08:18 EST    1.84   1.74    8  191   11  50.5  38.7 1023.0 32.4  1.027 -99.9 -99.99 -9.99
2019/12/09 08:24 EST    1.75   1.72    8  188    9  50.4  38.7 1022.9 32.3  1.027 -99.9 -99.99 -9.99
2019/12/09 08:30 EST    1.65 -99.99 -999 -999 -999 -99.9 -99.9 -999.9 -9.9 -9.999 -99.9 -99.99 -9.99
2019/12/09 08:36 EST    1.56 -99.99 -999 -999 -999 -99.9 -99.9 -999.9 -9.9 -9.999 -99.9 -99.99 -9.99
2019/12/09 08:42 EST    1.47 -99.99 -999 -999 -999 -99.9 -99.9 -999.9 -9.9 -9.999 -99.9 -99.99 -9.99